Observation data for Big Lake on 04/23/2019      Previous  Date  Next       Current Mesonet Observations  Soil Data  Daily Summary Page  Observations in Plain Language
KBI1 230500Z 14006KT 17/14 A2997 RMK A01 T01720142  RH  082%=      5-min Rain = 0
KBI1 230501Z 14007KT 17/14 A2997 RMK A01 T01720142  RH  082%=      5-min Rain = 0
KBI1 230502Z 14006KT 17/14 A2997 RMK A01 T01720142  RH  083%=      5-min Rain = 0
KBI1 230503Z 14007KT 17/14 A2997 RMK A01 T01710142  RH  083%=      5-min Rain = 0
KBI1 230504Z 13006KT 17/14 A2997 RMK A01 T01710142  RH  083%=      5-min Rain = 0
KBI1 230505Z 14006KT 17/14 A2997 RMK A01 T01710142  RH  083%=      5-min Rain = 0
KBI1 230506Z 14006KT 17/14 A2996 RMK A01 T01710141  RH  083%=      5-min Rain = 0
KBI1 230507Z 14006KT 17/14 A2996 RMK A01 T01710142  RH  083%=      5-min Rain = 0
KBI1 230508Z 14007KT 17/14 A2996 RMK A01 T01700141  RH  083%=      5-min Rain = 0
KBI1 230509Z 14006KT 17/14 A2996 RMK A01 T01700141  RH  083%=      5-min Rain = 0
KBI1 230510Z 14007KT 17/14 A2996 RMK A01 T01700141  RH  083%=      5-min Rain = 0
KBI1 230511Z 15006KT 17/14 A2996 RMK A01 T01700142  RH  083%=      5-min Rain = 0
KBI1 230512Z 14007KT 17/14 A2996 RMK A01 T01700141  RH  083%=      5-min Rain = 0
KBI1 230513Z 14007KT 17/14 A2996 RMK A01 T01700142  RH  083%=      5-min Rain = 0
KBI1 230514Z 14007KT 17/14 A2996 RMK A01 T01700141  RH  083%=      5-min Rain = 0
KBI1 230515Z 14006KT 17/14 A2996 RMK A01 T01690141  RH  084%=      5-min Rain = 0
KBI1 230516Z 14005KT 17/14 A2996 RMK A01 T01690141  RH  084%=      5-min Rain = 0
KBI1 230517Z 14006KT 17/14 A2996 RMK A01 T01690142  RH  084%=      5-min Rain = 0
KBI1 230518Z 14006KT 17/14 A2996 RMK A01 T01690141  RH  084%=      5-min Rain = 0
KBI1 230519Z 14005KT 17/14 A2996 RMK A01 T01680141  RH  084%=      5-min Rain = 0
KBI1 230520Z 14005KT 17/14 A2996 RMK A01 T01680141  RH  084%=      5-min Rain = 0
KBI1 230521Z 15007KT 17/14 A2996 RMK A01 T01680142  RH  084%=      5-min Rain = 0
KBI1 230522Z 14005KT 17/14 A2996 RMK A01 T01680142  RH  084%=      5-min Rain = 0
KBI1 230523Z 15005KT 17/14 A2996 RMK A01 T01680142  RH  084%=      5-min Rain = 0
KBI1 230524Z 14005KT 17/14 A2996 RMK A01 T01680141  RH  084%=      5-min Rain = 0
KBI1 230525Z 14007KT 17/14 A2996 RMK A01 T01680142  RH  084%=      5-min Rain = 0
KBI1 230526Z 14005KT 17/14 A2996 RMK A01 T01680141  RH  084%=      5-min Rain = 0
KBI1 230527Z 14006KT 17/14 A2996 RMK A01 T01680142  RH  084%=      5-min Rain = 0
KBI1 230528Z 14005KT 17/14 A2996 RMK A01 T01680141  RH  084%=      5-min Rain = 0
KBI1 230529Z 14005KT 17/14 A2996 RMK A01 T01680142  RH  084%=      5-min Rain = 0
KBI1 230530Z 14006KT 17/14 A2996 RMK A01 T01680142  RH  085%=      5-min Rain = 0
KBI1 230531Z 15005KT 17/14 A2996 RMK A01 T01670142  RH  085%=      5-min Rain = 0
KBI1 230532Z 14004KT 17/14 A2996 RMK A01 T01670142  RH  085%=      5-min Rain = 0
KBI1 230533Z 14007KT 17/14 A2996 RMK A01 T01670142  RH  085%=      5-min Rain = 0
KBI1 230534Z 14006KT 17/14 A2996 RMK A01 T01670142  RH  085%=      5-min Rain = 0
KBI1 230535Z 15005KT 17/14 A2996 RMK A01 T01670142  RH  085%=      5-min Rain = 0
KBI1 230536Z 14006KT 17/14 A2996 RMK A01 T01670142  RH  085%=      5-min Rain = 0
KBI1 230537Z 15005KT 17/14 A2996 RMK A01 T01670142  RH  085%=      5-min Rain = 0
KBI1 230538Z 15005KT 17/14 A2996 RMK A01 T01670142  RH  085%=      5-min Rain = 0
KBI1 230539Z 15006KT 17/14 A2996 RMK A01 T01670142  RH  085%=      5-min Rain = 0
KBI1 230540Z 14006KT 17/14 A2996 RMK A01 T01670142  RH  085%=      5-min Rain = 0
KBI1 230541Z 15005KT 17/14 A2996 RMK A01 T01660141  RH  085%=      5-min Rain = 0
KBI1 230542Z 15006KT 17/14 A2996 RMK A01 T01670142  RH  085%=      5-min Rain = 0
KBI1 230543Z 15006KT 17/14 A2996 RMK A01 T01660142  RH  085%=      5-min Rain = 0
KBI1 230544Z 15005KT 17/14 A2996 RMK A01 T01660142  RH  085%=      5-min Rain = 0
KBI1 230545Z 14006KT 17/14 A2996 RMK A01 T01660141  RH  085%=      5-min Rain = 0
KBI1 230546Z 14006KT 17/14 A2996 RMK A01 T01660142  RH  085%=      5-min Rain = 0
KBI1 230547Z 14006KT 17/14 A2996 RMK A01 T01660142  RH  085%=      5-min Rain = 0
KBI1 230548Z 14006KT 17/14 A2996 RMK A01 T01660142  RH  085%=      5-min Rain = 0
KBI1 230549Z 14007KT 17/14 A2996 RMK A01 T01660142  RH  085%=      5-min Rain = 0
KBI1 230550Z 14005KT 17/14 A2996 RMK A01 T01660142  RH  085%=      5-min Rain = 0
KBI1 230551Z 14006KT 17/14 A2996 RMK A01 T01670142  RH  085%=      5-min Rain = 0
KBI1 230552Z 14006KT 17/14 A2996 RMK A01 T01660142  RH  085%=      5-min Rain = 0
KBI1 230553Z 14007KT 17/14 A2996 RMK A01 T01670142  RH  085%=      5-min Rain = 0
KBI1 230554Z 13007KT 17/14 A2996 RMK A01 T01660142  RH  085%=      5-min Rain = 0
KBI1 230555Z 14006KT 17/14 A2996 RMK A01 T01660142  RH  085%=      5-min Rain = 0
KBI1 230556Z 14006KT 17/14 A2996 RMK A01 T01660141  RH  085%=      5-min Rain = 0
KBI1 230557Z 14006KT 17/14 A2996 RMK A01 T01660142  RH  085%=      5-min Rain = 0
KBI1 230558Z 14007KT 17/14 A2996 RMK A01 T01660142  RH  086%=      5-min Rain = 0
KBI1 230559Z 14006KT 17/14 A2996 RMK A01 T01660142  RH  086%=      5-min Rain = 0
KBI1 230600Z 14006KT 17/14 A2996 RMK A01 T01660142  RH  086%=      5-min Rain = 0
KBI1 230601Z 15005KT 17/14 A2996 RMK A01 T01660142  RH  086%=      5-min Rain = 0
KBI1 230602Z 15005KT 17/14 A2996 RMK A01 T01660142  RH  086%=      5-min Rain = 0
KBI1 230603Z 14006G11KT 17/14 A2996 RMK A01 T01650141  RH  086%=      5-min Rain = 0
KBI1 230604Z 14009KT 17/14 A2996 RMK A01 T01650142  RH  086%=      5-min Rain = 0
KBI1 230605Z 14008KT 17/14 A2996 RMK A01 T01650142  RH  086%=      5-min Rain = 0
KBI1 230606Z 15006G11KT 17/14 A2996 RMK A01 T01660142  RH  086%=      5-min Rain = 0
KBI1 230607Z 15005KT 17/14 A2996 RMK A01 T01660142  RH  086%=      5-min Rain = 0
KBI1 230608Z 14006KT 17/14 A2996 RMK A01 T01660142  RH  086%=      5-min Rain = 0
KBI1 230609Z 15006KT 17/14 A2996 RMK A01 T01660143  RH  086%=      5-min Rain = 0
KBI1 230610Z 14006KT 17/14 A2996 RMK A01 T01660143  RH  086%=      5-min Rain = 0
KBI1 230611Z 15006KT 17/14 A2996 RMK A01 T01660143  RH  086%=      5-min Rain = 0
KBI1 230612Z 14005KT 17/14 A2996 RMK A01 T01660143  RH  086%=      5-min Rain = 0
KBI1 230613Z 14006KT 17/14 A2996 RMK A01 T01660143  RH  086%=      5-min Rain = 0
KBI1 230614Z 15006KT 17/14 A2996 RMK A01 T01660143  RH  086%=      5-min Rain = 0
KBI1 230615Z 14006KT 17/14 A2996 RMK A01 T01660143  RH  087%=      5-min Rain = 0
KBI1 230616Z 14005KT 17/14 A2996 RMK A01 T01650143  RH  086%=      5-min Rain = 0
KBI1 230617Z 14005KT 17/14 A2996 RMK A01 T01660143  RH  086%=      5-min Rain = 0
KBI1 230618Z 13007KT 17/14 A2996 RMK A01 T01660143  RH  086%=      5-min Rain = 0
KBI1 230619Z 14007KT 17/14 A2996 RMK A01 T01660143  RH  087%=      5-min Rain = 0
KBI1 230620Z 14006KT 17/14 A2996 RMK A01 T01660143  RH  086%=      5-min Rain = 0
KBI1 230621Z 14007KT 17/14 A2996 RMK A01 T01670144  RH  086%=      5-min Rain = 0
KBI1 230622Z 13007KT 17/14 A2996 RMK A01 T01670144  RH  086%=      5-min Rain = 0
KBI1 230623Z 14007KT 17/14 A2996 RMK A01 T01670144  RH  086%=      5-min Rain = 0
KBI1 230624Z 14007KT 17/14 A2996 RMK A01 T01670144  RH  086%=      5-min Rain = 0
KBI1 230625Z 14009KT 17/14 A2996 RMK A01 T01670144  RH  086%=      5-min Rain = 0
KBI1 230626Z 14009G14KT 17/14 A2996 RMK A01 T01670144  RH  086%=      5-min Rain = 0
KBI1 230627Z 14008KT 17/14 A2996 RMK A01 T01680144  RH  086%=      5-min Rain = 0
KBI1 230628Z 14008KT 17/14 A2996 RMK A01 T01680144  RH  086%=      5-min Rain = 0
KBI1 230629Z 14006KT 17/14 A2996 RMK A01 T01680144  RH  085%=      5-min Rain = 0
KBI1 230630Z 14007KT 17/14 A2996 RMK A01 T01680144  RH  085%=      5-min Rain = 0
KBI1 230631Z 14007KT 17/14 A2996 RMK A01 T01680144  RH  086%=      5-min Rain = 0
KBI1 230632Z 14009KT 17/14 A2996 RMK A01 T01680144  RH  086%=      5-min Rain = 0
KBI1 230633Z 14006KT 17/14 A2996 RMK A01 T01680144  RH  086%=      5-min Rain = 0
KBI1 230634Z 14008KT 17/14 A2996 RMK A01 T01680144  RH  086%=      5-min Rain = 0
KBI1 230635Z 14008KT 17/14 A2996 RMK A01 T01680144  RH  086%=      5-min Rain = 0
KBI1 230636Z 14008KT 17/14 A2996 RMK A01 T01680144  RH  086%=      5-min Rain = 0
KBI1 230637Z 13007KT 17/14 A2996 RMK A01 T01680144  RH  086%=      5-min Rain = 0
KBI1 230638Z 15006KT 17/14 A2996 RMK A01 T01680144  RH  086%=      5-min Rain = 0
KBI1 230639Z 14007KT 17/14 A2996 RMK A01 T01680144  RH  086%=      5-min Rain = 0
KBI1 230640Z 14007KT 17/15 A2996 RMK A01 T01670145  RH  087%=      5-min Rain = 0
KBI1 230641Z 14007KT 17/14 A2996 RMK A01 T01670144  RH  087%=      5-min Rain = 0
KBI1 230642Z 14007KT 17/15 A2996 RMK A01 T01670145  RH  087%=      5-min Rain = 0
KBI1 230643Z 13007KT 17/14 A2996 RMK A01 T01660144  RH  087%=      5-min Rain = 0
KBI1 230644Z 14008KT 17/15 A2996 RMK A01 T01670145  RH  087%=      5-min Rain = 0
KBI1 230645Z 13007KT 17/15 A2996 RMK A01 T01660145  RH  087%=      5-min Rain = 0
KBI1 230646Z 14006KT 17/14 A2996 RMK A01 T01660144  RH  087%=      5-min Rain = 0
KBI1 230647Z 14006KT 17/15 A2996 RMK A01 T01660145  RH  087%=      5-min Rain = 0
KBI1 230648Z 14007KT 17/14 A2996 RMK A01 T01660144  RH  087%=      5-min Rain = 0
KBI1 230649Z 14007KT 17/15 A2996 RMK A01 T01650145  RH  087%=      5-min Rain = 0
KBI1 230650Z 13007KT 17/14 A2996 RMK A01 T01650144  RH  088%=      5-min Rain = 0
KBI1 230651Z 14007KT 17/15 A2996 RMK A01 T01650145  RH  088%=      5-min Rain = 0
KBI1 230652Z 14007KT 17/14 A2996 RMK A01 T01650144  RH  088%=      5-min Rain = 0
KBI1 230653Z 14007KT 17/14 A2996 RMK A01 T01650144  RH  088%=      5-min Rain = 0
KBI1 230654Z 14007KT 17/14 A2996 RMK A01 T01650144  RH  088%=      5-min Rain = 0
KBI1 230655Z 14007KT 17/14 A2996 RMK A01 T01650144  RH  088%=      5-min Rain = 0
KBI1 230656Z 14007KT 17/14 A2996 RMK A01 T01650144  RH  088%=      5-min Rain = 0
KBI1 230657Z 14007KT 17/15 A2996 RMK A01 T01650145  RH  088%=      5-min Rain = 0
KBI1 230658Z 14007KT 17/15 A2996 RMK A01 T01650145  RH  088%=      5-min Rain = 0
KBI1 230659Z 14008KT 17/15 A2996 RMK A01 T01650145  RH  088%=      5-min Rain = 0
KBI1 230700Z 15010KT 17/15 A2995 RMK A01 T01650145  RH  088%=      5-min Rain = 0
KBI1 230701Z 15007KT 17/15 A2996 RMK A01 T01650145  RH  088%=      5-min Rain = 0
KBI1 230702Z 14008KT 17/14 A2995 RMK A01 T01650144  RH  087%=      5-min Rain = 0
KBI1 230703Z 13008KT 17/15 A2995 RMK A01 T01650145  RH  088%=      5-min Rain = 0
KBI1 230704Z 14006KT 17/15 A2995 RMK A01 T01650145  RH  088%=      5-min Rain = 0
KBI1 230705Z 14007KT 17/15 A2995 RMK A01 T01650145  RH  088%=      5-min Rain = 0
KBI1 230706Z 14008KT 17/15 A2995 RMK A01 T01650145  RH  088%=      5-min Rain = 0
KBI1 230707Z 14008KT 17/15 A2995 RMK A01 T01650145  RH  088%=      5-min Rain = 0
KBI1 230708Z 13008KT 17/15 A2995 RMK A01 T01650145  RH  088%=      5-min Rain = 0
KBI1 230709Z 14008KT 17/15 A2995 RMK A01 T01650145  RH  088%=      5-min Rain = 0
KBI1 230710Z 14007KT 17/15 A2995 RMK A01 T01650145  RH  088%=      5-min Rain = 0
KBI1 230711Z 14009KT 17/15 A2995 RMK A01 T01650145  RH  088%=      5-min Rain = 0
KBI1 230712Z 14007KT 17/15 A2995 RMK A01 T01650145  RH  088%=      5-min Rain = 0
KBI1 230713Z 13010KT 17/15 A2995 RMK A01 T01650145  RH  088%=      5-min Rain = 0
KBI1 230714Z 14008KT 16/15 A2995 RMK A01 T01640145  RH  088%=      5-min Rain = 0
KBI1 230715Z 13007KT 16/15 A2995 RMK A01 T01640145  RH  088%=      5-min Rain = 0
KBI1 230716Z 13008KT 16/15 A2995 RMK A01 T01640145  RH  088%=      5-min Rain = 0
KBI1 230717Z 13008KT 16/15 A2995 RMK A01 T01640145  RH  088%=      5-min Rain = 0
KBI1 230718Z 13008KT 16/15 A2995 RMK A01 T01640145  RH  088%=      5-min Rain = 0
KBI1 230719Z 14007KT 16/15 A2995 RMK A01 T01640145  RH  088%=      5-min Rain = 0
KBI1 230720Z 14007KT 16/15 A2996 RMK A01 T01640145  RH  089%=      5-min Rain = 0
KBI1 230721Z 14006KT 16/15 A2996 RMK A01 T01630145  RH  089%=      5-min Rain = 0
KBI1 230722Z 14005KT 16/15 A2996 RMK A01 T01630145  RH  089%=      5-min Rain = 0
KBI1 230723Z 14007KT 16/15 A2996 RMK A01 T01630145  RH  089%=      5-min Rain = 0
KBI1 230724Z 13007KT 16/15 A2996 RMK A01 T01630145  RH  089%=      5-min Rain = 0
KBI1 230725Z 14006KT 16/15 A2996 RMK A01 T01640145  RH  089%=      5-min Rain = 0
KBI1 230726Z 14007KT 16/15 A2996 RMK A01 T01630145  RH  089%=      5-min Rain = 0
KBI1 230727Z 14007KT 16/15 A2996 RMK A01 T01640145  RH  089%=      5-min Rain = 0
KBI1 230728Z 14006KT 16/15 A2996 RMK A01 T01640145  RH  089%=      5-min Rain = 0
KBI1 230729Z 13006KT 16/15 A2996 RMK A01 T01640145  RH  089%=      5-min Rain = 0
KBI1 230730Z 13005KT 16/15 A2996 RMK A01 T01640145  RH  089%=      5-min Rain = 0
KBI1 230731Z 13005KT 16/15 A2996 RMK A01 T01640146  RH  089%=      5-min Rain = 0
KBI1 230732Z 13005KT 16/15 A2996 RMK A01 T01640146  RH  089%=      5-min Rain = 0
KBI1 230733Z 13005KT 16/15 A2996 RMK A01 T01640146  RH  089%=      5-min Rain = 0
KBI1 230734Z 12005KT 16/15 A2996 RMK A01 T01640146  RH  089%=      5-min Rain = 0
KBI1 230735Z 13005KT 17/15 A2996 RMK A01 T01650146  RH  089%=      5-min Rain = 0
KBI1 230736Z 13004KT 17/15 A2996 RMK A01 T01650146  RH  089%=      5-min Rain = 0
KBI1 230737Z 13004KT 17/15 A2996 RMK A01 T01650147  RH  089%=      5-min Rain = 0
KBI1 230738Z 12005KT 17/15 A2996 RMK A01 T01650146  RH  089%=      5-min Rain = 0
KBI1 230739Z 13007KT 17/15 A2996 RMK A01 T01650146  RH  089%=      5-min Rain = 0
KBI1 230740Z 13005KT 17/15 A2996 RMK A01 T01650146  RH  089%=      5-min Rain = 0
KBI1 230741Z 13005KT 17/15 A2996 RMK A01 T01650146  RH  089%=      5-min Rain = 0
KBI1 230742Z 13004KT 17/15 A2996 RMK A01 T01650146  RH  089%=      5-min Rain = 0
KBI1 230743Z 14006KT 17/15 A2996 RMK A01 T01650146  RH  089%=      5-min Rain = 0
KBI1 230744Z 14004KT 17/15 A2995 RMK A01 T01650146  RH  089%=      5-min Rain = 0
KBI1 230745Z 14005KT 17/15 A2995 RMK A01 T01650146  RH  089%=      5-min Rain = 0
KBI1 230746Z 13006KT 17/15 A2995 RMK A01 T01650146  RH  089%=      5-min Rain = 0
KBI1 230747Z 14006KT 17/15 A2995 RMK A01 T01650147  RH  089%=      5-min Rain = 0
KBI1 230748Z 13005KT 17/15 A2995 RMK A01 T01650147  RH  089%=      5-min Rain = 0
KBI1 230749Z 13007KT 17/15 A2995 RMK A01 T01660148  RH  089%=      5-min Rain = 0
KBI1 230750Z 14007KT 17/15 A2995 RMK A01 T01660147  RH  089%=      5-min Rain = 0
KBI1 230751Z 14006KT 17/15 A2995 RMK A01 T01660148  RH  089%=      5-min Rain = 0
KBI1 230752Z 14006KT 17/15 A2995 RMK A01 T01670148  RH  089%=      5-min Rain = 0
KBI1 230753Z 13006KT 17/15 A2995 RMK A01 T01670148  RH  089%=      5-min Rain = 0
KBI1 230754Z 14006KT 17/15 A2995 RMK A01 T01670148  RH  089%=      5-min Rain = 0
KBI1 230755Z 14006KT 17/15 A2995 RMK A01 T01670148  RH  089%=      5-min Rain = 0
KBI1 230756Z 14006KT 17/15 A2995 RMK A01 T01680149  RH  089%=      5-min Rain = 0
KBI1 230757Z 14007KT 17/15 A2995 RMK A01 T01680149  RH  089%=      5-min Rain = 0
KBI1 230758Z 15008KT 17/15 A2995 RMK A01 T01680149  RH  089%=      5-min Rain = 0
KBI1 230759Z 14006KT 17/15 A2995 RMK A01 T01680149  RH  088%=      5-min Rain = 0
KBI1 230800Z 14009G16KT 17/15 A2995 RMK A01 T01690149  RH  088%=      5-min Rain = 0
KBI1 230801Z 14008KT 17/15 A2995 RMK A01 T01700150  RH  088%=      5-min Rain = 0
KBI1 230802Z 15007KT 17/15 A2995 RMK A01 T01700150  RH  088%=      5-min Rain = 0
KBI1 230803Z 14007KT 17/15 A2995 RMK A01 T01700150  RH  088%=      5-min Rain = 0
KBI1 230804Z 14006KT 17/15 A2995 RMK A01 T01700150  RH  088%=      5-min Rain = 0
KBI1 230805Z 15006KT 17/15 A2995 RMK A01 T01700151  RH  088%=      5-min Rain = 0
KBI1 230806Z 14006KT 17/15 A2995 RMK A01 T01700151  RH  088%=      5-min Rain = 0
KBI1 230807Z 14006KT 17/15 A2995 RMK A01 T01700150  RH  088%=      5-min Rain = 0
KBI1 230808Z 15005KT 17/15 A2995 RMK A01 T01700151  RH  088%=      5-min Rain = 0
KBI1 230809Z 15006KT 17/15 A2995 RMK A01 T01700151  RH  088%=      5-min Rain = 0
KBI1 230810Z 16008KT 17/15 A2995 RMK A01 T01700151  RH  088%=      5-min Rain = 0
KBI1 230811Z 15009KT 17/15 A2995 RMK A01 T01710151  RH  088%=      5-min Rain = 0
KBI1 230812Z 14007KT 17/15 A2995 RMK A01 T01710151  RH  088%=      5-min Rain = 0
KBI1 230813Z 15005KT 17/15 A2995 RMK A01 T01710152  RH  088%=      5-min Rain = 0
KBI1 230814Z 14007KT 17/15 A2995 RMK A01 T01710152  RH  088%=      5-min Rain = 0
KBI1 230815Z 14007KT 17/15 A2995 RMK A01 T01710152  RH  088%=      5-min Rain = 0
KBI1 230816Z 15005KT 17/15 A2995 RMK A01 T01710152  RH  088%=      5-min Rain = 0
KBI1 230817Z 15007KT 17/15 A2995 RMK A01 T01720152  RH  088%=      5-min Rain = 0
KBI1 230818Z 14006KT 17/15 A2995 RMK A01 T01710152  RH  088%=      5-min Rain = 0
KBI1 230819Z 14006KT 17/15 A2995 RMK A01 T01710152  RH  088%=      5-min Rain = 0
KBI1 230820Z 14007KT 17/15 A2995 RMK A01 T01720152  RH  088%=      5-min Rain = 0
KBI1 230821Z 15007KT 17/15 A2995 RMK A01 T01720152  RH  088%=      5-min Rain = 0
KBI1 230822Z 15006KT 17/15 A2995 RMK A01 T01720152  RH  088%=      5-min Rain = 0
KBI1 230823Z 14005KT 17/15 A2995 RMK A01 T01720152  RH  088%=      5-min Rain = 0
KBI1 230824Z 14006KT 17/15 A2995 RMK A01 T01720152  RH  088%=      5-min Rain = 0
KBI1 230825Z 14005KT 17/15 A2995 RMK A01 T01720152  RH  088%=      5-min Rain = 0
KBI1 230826Z 14006KT 17/15 A2995 RMK A01 T01720152  RH  088%=      5-min Rain = 0
KBI1 230827Z 14004KT 17/15 A2995 RMK A01 T01720152  RH  088%=      5-min Rain = 0
KBI1 230828Z 14005KT 17/15 A2995 RMK A01 T01720153  RH  088%=      5-min Rain = 0
KBI1 230829Z 16005KT 17/15 A2995 RMK A01 T01720153  RH  088%=      5-min Rain = 0
KBI1 230830Z 13005KT 17/15 A2995 RMK A01 T01720153  RH  088%=      5-min Rain = 0
KBI1 230831Z 15006KT 17/15 A2995 RMK A01 T01720153  RH  088%=      5-min Rain = 0
KBI1 230832Z 14007KT 17/15 A2995 RMK A01 T01720153  RH  088%=      5-min Rain = 0
KBI1 230833Z 13006KT 17/15 A2995 RMK A01 T01720153  RH  088%=      5-min Rain = 0
KBI1 230834Z 14005KT 17/15 A2995 RMK A01 T01730153  RH  088%=      5-min Rain = 0
KBI1 230835Z 15005KT 17/15 A2995 RMK A01 T01730153  RH  088%=      5-min Rain = 0
KBI1 230836Z 13005KT 17/15 A2995 RMK A01 T01720153  RH  088%=      5-min Rain = 0
KBI1 230837Z 14005KT 17/15 A2995 RMK A01 T01730153  RH  088%=      5-min Rain = 0
KBI1 230838Z 14004KT 17/15 A2995 RMK A01 T01730153  RH  088%=      5-min Rain = 0
KBI1 230839Z 15005KT 17/15 A2995 RMK A01 T01730153  RH  088%=      5-min Rain = 0
KBI1 230840Z 14005KT 17/15 A2995 RMK A01 T01730153  RH  088%=      5-min Rain = 0
KBI1 230841Z 14006KT 17/15 A2995 RMK A01 T01730153  RH  088%=      5-min Rain = 0
KBI1 230842Z 14005KT 17/15 A2995 RMK A01 T01730153  RH  088%=      5-min Rain = 0
KBI1 230843Z 13006KT 17/15 A2995 RMK A01 T01730153  RH  088%=      5-min Rain = 0
KBI1 230844Z 13006KT 17/15 A2995 RMK A01 T01730153  RH  088%=      5-min Rain = 0
KBI1 230845Z 14004KT 17/15 A2995 RMK A01 T01730153  RH  088%=      5-min Rain = 0
KBI1 230846Z 14005KT 17/15 A2995 RMK A01 T01730153  RH  088%=      5-min Rain = 0
KBI1 230847Z 14004KT 17/15 A2995 RMK A01 T01730153  RH  088%=      5-min Rain = 0
KBI1 230848Z 16006KT 17/15 A2995 RMK A01 T01730153  RH  088%=      5-min Rain = 0
KBI1 230849Z 14005KT 17/15 A2995 RMK A01 T01740154  RH  088%=      5-min Rain = 0
KBI1 230850Z 13005KT 17/15 A2995 RMK A01 T01740154  RH  088%=      5-min Rain = 0
KBI1 230851Z 15006KT 17/15 A2995 RMK A01 T01730154  RH  088%=      5-min Rain = 0
KBI1 230852Z 14006KT 17/15 A2995 RMK A01 T01730154  RH  088%=      5-min Rain = 0
KBI1 230853Z 15007KT 17/15 A2995 RMK A01 T01740154  RH  088%=      5-min Rain = 0
KBI1 230854Z 16006KT 17/15 A2995 RMK A01 T01740154  RH  088%=      5-min Rain = 0
KBI1 230855Z 14005KT 17/15 A2995 RMK A01 T01740154  RH  088%=      5-min Rain = 0
KBI1 230856Z 15005KT 17/15 A2995 RMK A01 T01740154  RH  088%=      5-min Rain = 0
KBI1 230857Z 15006KT 17/15 A2995 RMK A01 T01740154  RH  088%=      5-min Rain = 0
KBI1 230858Z 16007KT 17/15 A2995 RMK A01 T01740154  RH  088%=      5-min Rain = 0
KBI1 230859Z 15005KT 17/15 A2995 RMK A01 T01740154  RH  088%=      5-min Rain = 0
KBI1 230900Z 16006KT 17/15 A2995 RMK A01 T01740154  RH  088%=      5-min Rain = 0
KBI1 230901Z 16005KT 17/15 A2995 RMK A01 T01740154  RH  088%=      5-min Rain = 0
KBI1 230902Z 16004KT 17/15 A2995 RMK A01 T01740154  RH  088%=      5-min Rain = 0
KBI1 230903Z 15006KT 18/15 A2995 RMK A01 T01750154  RH  088%=      5-min Rain = 0
KBI1 230904Z 16006KT 18/15 A2995 RMK A01 T01750154  RH  088%=      5-min Rain = 0
KBI1 230905Z 15007KT 18/15 A2995 RMK A01 T01750154  RH  088%=      5-min Rain = 0
KBI1 230906Z 14004KT 18/15 A2995 RMK A01 T01750154  RH  088%=      5-min Rain = 0
KBI1 230907Z 16007KT 18/16 A2995 RMK A01 T01750155  RH  088%=      5-min Rain = 0
KBI1 230908Z 16007KT 18/16 A2995 RMK A01 T01750155  RH  088%=      5-min Rain = 0
KBI1 230909Z 16006KT 18/15 A2995 RMK A01 T01750154  RH  088%=      5-min Rain = 0
KBI1 230910Z 15003KT 18/16 A2995 RMK A01 T01750155  RH  088%=      5-min Rain = 0
KBI1 230911Z 15004KT 18/16 A2995 RMK A01 T01750155  RH  088%=      5-min Rain = 0
KBI1 230912Z 15004KT 18/16 A2995 RMK A01 T01750155  RH  088%=      5-min Rain = 0
KBI1 230913Z 15004KT 18/16 A2995 RMK A01 T01750155  RH  088%=      5-min Rain = 0
KBI1 230914Z 16004KT 18/16 A2995 RMK A01 T01750155  RH  088%=      5-min Rain = 0
KBI1 230915Z 15005KT 18/16 A2995 RMK A01 T01750155  RH  088%=      5-min Rain = 0
KBI1 230916Z 15004KT 18/16 A2995 RMK A01 T01750155  RH  088%=      5-min Rain = 0
KBI1 230917Z 15005KT 18/16 A2995 RMK A01 T01760155  RH  088%=      5-min Rain = 0
KBI1 230918Z 15006KT 18/16 A2995 RMK A01 T01760155  RH  088%=      5-min Rain = 0
KBI1 230919Z 15006KT 18/16 A2995 RMK A01 T01760155  RH  088%=      5-min Rain = 0
KBI1 230920Z 15005KT 18/16 A2995 RMK A01 T01760156  RH  088%=      5-min Rain = 0
KBI1 230921Z 15004KT 18/16 A2995 RMK A01 T01760156  RH  088%=      5-min Rain = 0
KBI1 230922Z 15004KT 18/16 A2995 RMK A01 T01760156  RH  088%=      5-min Rain = 0
KBI1 230923Z 15003KT 18/16 A2995 RMK A01 T01760156  RH  088%=      5-min Rain = 0
KBI1 230924Z 14003KT 18/16 A2995 RMK A01 T01760156  RH  088%=      5-min Rain = 0
KBI1 230925Z 14003KT 18/16 A2995 RMK A01 T01760156  RH  088%=      5-min Rain = 0
KBI1 230926Z 14005KT 18/16 A2995 RMK A01 T01760156  RH  088%=      5-min Rain = 0
KBI1 230927Z 14006KT 18/16 A2995 RMK A01 T01760156  RH  088%=      5-min Rain = 0
KBI1 230928Z 13006KT 18/16 A2995 RMK A01 T01760156  RH  088%=      5-min Rain = 0
KBI1 230929Z 13007KT 18/16 A2995 RMK A01 T01760156  RH  088%=      5-min Rain = 0
KBI1 230930Z 14006KT 18/16 A2995 RMK A01 T01760156  RH  088%=      5-min Rain = 0
KBI1 230931Z 14007KT 18/16 A2995 RMK A01 T01770156  RH  088%=      5-min Rain = 0
KBI1 230932Z 14007KT 18/16 A2995 RMK A01 T01770156  RH  088%=      5-min Rain = 0
KBI1 230933Z 14006KT 18/16 A2995 RMK A01 T01770156  RH  088%=      5-min Rain = 0
KBI1 230934Z 14006KT 18/16 A2995 RMK A01 T01770156  RH  088%=      5-min Rain = 0
KBI1 230935Z 14007KT 18/16 A2995 RMK A01 T01770156  RH  088%=      5-min Rain = 0
KBI1 230936Z 13007KT 18/16 A2995 RMK A01 T01760156  RH  088%=      5-min Rain = 0
KBI1 230937Z 14006KT 18/16 A2995 RMK A01 T01770156  RH  088%=      5-min Rain = 0
KBI1 230938Z 13005KT 18/16 A2995 RMK A01 T01770156  RH  088%=      5-min Rain = 0
KBI1 230939Z 15005KT 18/16 A2995 RMK A01 T01770156  RH  088%=      5-min Rain = 0
KBI1 230940Z 13005KT 18/16 A2995 RMK A01 T01770156  RH  088%=      5-min Rain = 0
KBI1 230941Z 14007KT 18/16 A2995 RMK A01 T01770156  RH  088%=      5-min Rain = 0
KBI1 230942Z 14006KT 18/16 A2995 RMK A01 T01770156  RH  088%=      5-min Rain = 0
KBI1 230943Z 13004KT 18/16 A2995 RMK A01 T01770156  RH  088%=      5-min Rain = 0
KBI1 230944Z 14003KT 18/16 A2995 RMK A01 T01770157  RH  088%=      5-min Rain = 0
KBI1 230945Z 14003KT 18/16 A2995 RMK A01 T01770157  RH  088%=      5-min Rain = 0
KBI1 230946Z 13003KT 18/16 A2995 RMK A01 T01770157  RH  088%=      5-min Rain = 0
KBI1 230947Z 15004KT 18/16 A2995 RMK A01 T01770157  RH  088%=      5-min Rain = 0
KBI1 230948Z 14003KT 18/16 A2995 RMK A01 T01780157  RH  088%=      5-min Rain = 0
KBI1 230949Z 14004KT 18/16 A2995 RMK A01 T01770157  RH  088%=      5-min Rain = 0
KBI1 230950Z 15004KT 18/16 A2995 RMK A01 T01780157  RH  088%=      5-min Rain = 0
KBI1 230951Z 14007KT 18/16 A2995 RMK A01 T01770156  RH  087%=      5-min Rain = 0
KBI1 230952Z 14004KT 18/16 A2996 RMK A01 T01780156  RH  087%=      5-min Rain = 0
KBI1 230953Z 15004KT 18/16 A2996 RMK A01 T01780156  RH  087%=      5-min Rain = 0
KBI1 230954Z 15003KT 18/16 A2996 RMK A01 T01780156  RH  087%=      5-min Rain = 0
KBI1 230955Z 14004G9KT 18/16 A2996 RMK A01 T01780156  RH  087%=      5-min Rain = 0
KBI1 230956Z 14005KT 18/16 A2996 RMK A01 T01780157  RH  087%=      5-min Rain = 0
KBI1 230957Z 15004KT 18/16 A2996 RMK A01 T01780156  RH  087%=      5-min Rain = 0
KBI1 230958Z 16003KT 18/16 A2996 RMK A01 T01780156  RH  087%=      5-min Rain = 0
KBI1 230959Z 15004KT 18/16 A2996 RMK A01 T01780157  RH  087%=      5-min Rain = 0
KBI1 231000Z 15004KT 18/16 A2996 RMK A01 T01780157  RH  087%=      5-min Rain = 0
KBI1 231001Z 16005KT 18/16 A2996 RMK A01 T01780156  RH  087%=      5-min Rain = 0
KBI1 231002Z 16006KT 18/16 A2996 RMK A01 T01780156  RH  087%=      5-min Rain = 0
KBI1 231003Z 15005KT 18/16 A2996 RMK A01 T01780156  RH  087%=      5-min Rain = 0
KBI1 231004Z 15004KT 18/16 A2996 RMK A01 T01790157  RH  087%=      5-min Rain = 0
KBI1 231005Z 16005KT 18/16 A2996 RMK A01 T01790157  RH  087%=      5-min Rain = 0
KBI1 231006Z 15005KT 18/16 A2996 RMK A01 T01780156  RH  087%=      5-min Rain = 0
KBI1 231007Z 16004KT 18/16 A2996 RMK A01 T01780156  RH  087%=      5-min Rain = 0
KBI1 231008Z 16004KT 18/16 A2996 RMK A01 T01780156  RH  087%=      5-min Rain = 0
KBI1 231009Z 15004KT 18/16 A2996 RMK A01 T01790157  RH  087%=      5-min Rain = 0
KBI1 231010Z 16003KT 18/16 A2996 RMK A01 T01790157  RH  087%=      5-min Rain = 0
KBI1 231011Z 16004KT 18/16 A2996 RMK A01 T01780157  RH  087%=      5-min Rain = 0
KBI1 231012Z 16004KT 18/16 A2996 RMK A01 T01780157  RH  087%=      5-min Rain = 0
KBI1 231013Z 16004KT 18/16 A2996 RMK A01 T01790157  RH  087%=      5-min Rain = 0
KBI1 231014Z 16004KT 18/16 A2996 RMK A01 T01780157  RH  087%=      5-min Rain = 0
KBI1 231015Z 17004KT 18/16 A2996 RMK A01 T01780157  RH  087%=      5-min Rain = 0
KBI1 231016Z 16005KT 18/16 A2996 RMK A01 T01780157  RH  087%=      5-min Rain = 0
KBI1 231017Z 17006KT 18/16 A2996 RMK A01 T01780157  RH  087%=      5-min Rain = 0
KBI1 231018Z 17005KT 18/16 A2996 RMK A01 T01780156  RH  087%=      5-min Rain = 0
KBI1 231019Z 17004KT 18/16 A2996 RMK A01 T01790157  RH  087%=      5-min Rain = 0
KBI1 231020Z 16004KT 18/16 A2996 RMK A01 T01790157  RH  087%=      5-min Rain = 0
KBI1 231021Z 16006KT 18/16 A2996 RMK A01 T01790156  RH  087%=      5-min Rain = 0
KBI1 231022Z 16004KT 18/16 A2996 RMK A01 T01790156  RH  087%=      5-min Rain = 0
KBI1 231023Z 16003KT 18/16 A2996 RMK A01 T01790156  RH  087%=      5-min Rain = 0
KBI1 231024Z 17004KT 18/16 A2996 RMK A01 T01790156  RH  087%=      5-min Rain = 0
KBI1 231025Z 18005KT 18/16 A2996 RMK A01 T01790157  RH  087%=      5-min Rain = 0
KBI1 231026Z 17004KT 18/16 A2996 RMK A01 T01790157  RH  087%=      5-min Rain = 0
KBI1 231027Z 18004KT 18/16 A2996 RMK A01 T01790157  RH  087%=      5-min Rain = 0
KBI1 231028Z 18004KT 18/16 A2996 RMK A01 T01790157  RH  087%=      5-min Rain = 0
KBI1 231029Z 18005KT 18/16 A2996 RMK A01 T01790157  RH  087%=      5-min Rain = 0
KBI1 231030Z 18005KT 18/16 A2996 RMK A01 T01780157  RH  087%=      5-min Rain = 0
KBI1 231031Z 17004KT 18/16 A2996 RMK A01 T01790157  RH  087%=      5-min Rain = 0
KBI1 231032Z 17003KT 18/16 A2996 RMK A01 T01780157  RH  087%=      5-min Rain = 0
KBI1 231033Z 17005KT 18/16 A2996 RMK A01 T01790157  RH  087%=      5-min Rain = 0
KBI1 231034Z 18005KT 18/16 A2996 RMK A01 T01780157  RH  087%=      5-min Rain = 0
KBI1 231035Z 17006KT 18/16 A2996 RMK A01 T01790157  RH  087%=      5-min Rain = 0
KBI1 231036Z 18006KT 18/16 A2996 RMK A01 T01790156  RH  087%=      5-min Rain = 0
KBI1 231037Z 17005KT 18/16 A2996 RMK A01 T01790156  RH  087%=      5-min Rain = 0
KBI1 231038Z 16004KT 18/16 A2996 RMK A01 T01790156  RH  087%=      5-min Rain = 0
KBI1 231039Z 18004KT 18/16 A2996 RMK A01 T01790157  RH  087%=      5-min Rain = 0
KBI1 231040Z 17005KT 18/16 A2996 RMK A01 T01790157  RH  087%=      5-min Rain = 0
KBI1 231041Z 18004KT 18/16 A2996 RMK A01 T01790157  RH  087%=      5-min Rain = 0
KBI1 231042Z 18004KT 18/16 A2996 RMK A01 T01790157  RH  087%=      5-min Rain = 0
KBI1 231043Z 17005KT 18/16 A2996 RMK A01 T01790157  RH  087%=      5-min Rain = 0
KBI1 231044Z 17006KT 18/16 A2996 RMK A01 T01780157  RH  087%=      5-min Rain = 0
KBI1 231045Z 17005KT 18/16 A2996 RMK A01 T01780157  RH  087%=      5-min Rain = 0
KBI1 231046Z 18005KT 18/16 A2996 RMK A01 T01780157  RH  087%=      5-min Rain = 0
KBI1 231047Z 17006KT 18/16 A2996 RMK A01 T01780157  RH  087%=      5-min Rain = 0
KBI1 231048Z 17006KT 18/16 A2996 RMK A01 T01780157  RH  087%=      5-min Rain = 0
KBI1 231049Z 18006KT 18/16 A2996 RMK A01 T01780157  RH  087%=      5-min Rain = 0
KBI1 231050Z 19005KT 18/16 A2996 RMK A01 T01780157  RH  087%=      5-min Rain = 0
KBI1 231051Z 18007KT 18/16 A2996 RMK A01 T01780157  RH  087%=      5-min Rain = 0
KBI1 231052Z 18008KT 18/16 A2996 RMK A01 T01780156  RH  087%=      5-min Rain = 0
KBI1 231053Z 19006KT 18/16 A2996 RMK A01 T01780156  RH  087%=      5-min Rain = 0
KBI1 231054Z 18005KT 18/16 A2996 RMK A01 T01780157  RH  087%=      5-min Rain = 0
KBI1 231055Z 18006KT 18/16 A2996 RMK A01 T01780157  RH  087%=      5-min Rain = 0
KBI1 231056Z 18005KT 18/16 A2996 RMK A01 T01780156  RH  087%=      5-min Rain = 0
KBI1 231057Z 18004KT 18/16 A2996 RMK A01 T01780156  RH  087%=      5-min Rain = 0
KBI1 231058Z 18004KT 18/16 A2996 RMK A01 T01780157  RH  087%=      5-min Rain = 0
KBI1 231059Z 18007KT 18/16 A2996 RMK A01 T01780156  RH  087%=      5-min Rain = 0
KBI1 231100Z 18007KT 18/16 A2996 RMK A01 T01780156  RH  087%=      5-min Rain = 0
KBI1 231101Z 18006KT 18/16 A2996 RMK A01 T01770155  RH  087%=      5-min Rain = 0
KBI1 231102Z 19006KT 18/16 A2996 RMK A01 T01770155  RH  087%=      5-min Rain = 0
KBI1 231103Z 18004KT 18/16 A2996 RMK A01 T01780155  RH  087%=      5-min Rain = 0
KBI1 231104Z 18005KT 18/16 A2996 RMK A01 T01780156  RH  087%=      5-min Rain = 0
KBI1 231105Z 17005KT 18/16 A2996 RMK A01 T01780156  RH  087%=      5-min Rain = 0
KBI1 231106Z 18006KT 18/16 A2996 RMK A01 T01780157  RH  087%=      5-min Rain = 0
KBI1 231107Z 18006KT 18/16 A2996 RMK A01 T01780156  RH  087%=      5-min Rain = 0
KBI1 231108Z 17005KT 18/16 A2996 RMK A01 T01780156  RH  087%=      5-min Rain = 0
KBI1 231109Z 17005KT 18/16 A2996 RMK A01 T01780156  RH  087%=      5-min Rain = 0
KBI1 231110Z 17006KT 18/16 A2996 RMK A01 T01770156  RH  087%=      5-min Rain = 0
KBI1 231111Z 16005KT 18/16 A2996 RMK A01 T01770157  RH  088%=      5-min Rain = 0
KBI1 231112Z 17004KT 18/16 A2996 RMK A01 T01770156  RH  088%=      5-min Rain = 0
KBI1 231113Z 17006KT 18/16 A2996 RMK A01 T01770157  RH  088%=      5-min Rain = 0
KBI1 231114Z 17005KT 18/16 A2997 RMK A01 T01770157  RH  088%=      5-min Rain = 0
KBI1 231115Z 18006KT 18/16 A2997 RMK A01 T01770157  RH  088%=      5-min Rain = 0
KBI1 231116Z 18006KT 18/16 A2997 RMK A01 T01770157  RH  088%=      5-min Rain = 0
KBI1 231117Z 18005KT 18/16 A2997 RMK A01 T01760157  RH  089%=      5-min Rain = 0
KBI1 231118Z 18005KT 18/16 A2997 RMK A01 T01760157  RH  089%=      5-min Rain = 0
KBI1 231119Z 17004KT 18/16 A2996 RMK A01 T01760157  RH  089%=      5-min Rain = 0
KBI1 231120Z 18005KT 18/16 A2997 RMK A01 T01760157  RH  089%=      5-min Rain = 0
KBI1 231121Z 19005KT 18/16 A2997 RMK A01 T01760158  RH  089%=      5-min Rain = 0
KBI1 231122Z 18005KT 18/16 A2997 RMK A01 T01760158  RH  089%=      5-min Rain = 0
KBI1 231123Z 18005KT 18/16 A2997 RMK A01 T01750157  RH  089%=      5-min Rain = 0
KBI1 231124Z 18005KT 18/16 A2997 RMK A01 T01750158  RH  089%=      5-min Rain = 0
KBI1 231125Z 18004KT 18/16 A2997 RMK A01 T01750158  RH  089%=      5-min Rain = 0
KBI1 231126Z 18004KT 18/16 A2997 RMK A01 T01750158  RH  089%=      5-min Rain = 0
KBI1 231127Z 18005KT 18/16 A2997 RMK A01 T01750158  RH  090%=      5-min Rain = 0
KBI1 231128Z 17005KT 18/16 A2997 RMK A01 T01750158  RH  090%=      5-min Rain = 0
KBI1 231129Z 17005KT 18/16 A2997 RMK A01 T01750158  RH  090%=      5-min Rain = 0
KBI1 231130Z 18004KT 18/16 A2997 RMK A01 T01750158  RH  090%=      5-min Rain = 0
KBI1 231131Z 18004KT 18/16 A2997 RMK A01 T01750158  RH  090%=      5-min Rain = 0
KBI1 231132Z 19004KT 18/16 A2997 RMK A01 T01750158  RH  090%=      5-min Rain = 0
KBI1 231133Z 19003KT 18/16 A2997 RMK A01 T01750158  RH  090%=      5-min Rain = 0
KBI1 231134Z 19003KT 18/16 A2997 RMK A01 T01750158  RH  090%=      5-min Rain = 0
KBI1 231135Z 19002KT 18/16 A2997 RMK A01 T01750158  RH  090%=      5-min Rain = 0
KBI1 231136Z 19003KT 18/16 A2997 RMK A01 T01750158  RH  090%=      5-min Rain = 0
KBI1 231137Z 20002KT 18/16 A2997 RMK A01 T01750158  RH  090%=      5-min Rain = 0
KBI1 231138Z 21002KT 18/16 A2997 RMK A01 T01750158  RH  090%=      5-min Rain = 0
KBI1 231139Z 19002KT 18/16 A2997 RMK A01 T01750158  RH  090%=      5-min Rain = 0
KBI1 231140Z 20003KT 18/16 A2997 RMK A01 T01750157  RH  089%=      5-min Rain = 0
KBI1 231141Z 19003KT 18/16 A2997 RMK A01 T01750157  RH  089%=      5-min Rain = 0
KBI1 231142Z 18002KT 18/16 A2997 RMK A01 T01750157  RH  089%=      5-min Rain = 0
KBI1 231143Z 18001KT 18/16 A2997 RMK A01 T01750157  RH  089%=      5-min Rain = 0
KBI1 231144Z 19001KT 18/16 A2997 RMK A01 T01750158  RH  090%=      5-min Rain = 0
KBI1 231145Z 18002KT 18/16 A2997 RMK A01 T01750158  RH  089%=      5-min Rain = 0
KBI1 231146Z 18003KT 18/16 A2997 RMK A01 T01750157  RH  089%=      5-min Rain = 0
KBI1 231147Z 19003KT 18/16 A2997 RMK A01 T01750157  RH  089%=      5-min Rain = 0
KBI1 231148Z 19002KT 18/16 A2997 RMK A01 T01750156  RH  089%=      5-min Rain = 0
KBI1 231149Z 17001KT 18/16 A2997 RMK A01 T01750156  RH  089%=      5-min Rain = 0
KBI1 231150Z 18002KT 18/16 A2997 RMK A01 T01750157  RH  089%=      5-min Rain = 0
KBI1 231151Z 18002KT 18/16 A2998 RMK A01 T01750157  RH  089%=      5-min Rain = 0
KBI1 231152Z 19002KT 18/16 A2998 RMK A01 T01750157  RH  089%=      5-min Rain = 0
KBI1 231153Z 19002KT 18/16 A2998 RMK A01 T01750157  RH  089%=      5-min Rain = 0
KBI1 231154Z 18002KT 18/16 A2998 RMK A01 T01750158  RH  089%=      5-min Rain = 0
KBI1 231155Z 18002KT 18/16 A2998 RMK A01 T01750158  RH  089%=      5-min Rain = 0
KBI1 231156Z 17002KT 18/16 A2998 RMK A01 T01750158  RH  089%=      5-min Rain = 0
KBI1 231157Z 18001KT 18/16 A2998 RMK A01 T01750158  RH  090%=      5-min Rain = 0
KBI1 231158Z 18002KT 18/16 A2998 RMK A01 T01750159  RH  090%=      5-min Rain = 0
KBI1 231159Z 18001KT 18/16 A2998 RMK A01 T01750158  RH  090%=      5-min Rain = 0
KBI1 231200Z 19002KT 18/16 A2998 RMK A01 T01750158  RH  090%=      5-min Rain = 0
KBI1 231201Z 19002KT 18/16 A2998 RMK A01 T01750159  RH  090%=      5-min Rain = 0
KBI1 231202Z 20002KT 17/16 A2998 RMK A01 T01740158  RH  090%=      5-min Rain = 0
KBI1 231203Z 19002KT 18/16 A2998 RMK A01 T01750159  RH  090%=      5-min Rain = 0
KBI1 231204Z 19002KT 17/16 A2998 RMK A01 T01740158  RH  090%=      5-min Rain = 0
KBI1 231205Z 19002KT 17/16 A2998 RMK A01 T01740158  RH  090%=      5-min Rain = 0
KBI1 231206Z 17003KT 17/16 A2998 RMK A01 T01740159  RH  091%=      5-min Rain = 0
KBI1 231207Z 16003KT 17/16 A2998 RMK A01 T01740159  RH  091%=      5-min Rain = 0
KBI1 231208Z 16003KT 17/16 A2998 RMK A01 T01740159  RH  091%=      5-min Rain = 0
KBI1 231209Z 16002KT 17/16 A2998 RMK A01 T01740159  RH  091%=      5-min Rain = 0
KBI1 231210Z 16003KT 17/16 A2998 RMK A01 T01730159  RH  091%=      5-min Rain = 0
KBI1 231211Z 16003KT 17/16 A2998 RMK A01 T01740159  RH  091%=      5-min Rain = 0
KBI1 231212Z 15003KT 17/16 A2998 RMK A01 T01740159  RH  091%=      5-min Rain = 0
KBI1 231213Z 16003KT 17/16 A2999 RMK A01 T01730159  RH  091%=      5-min Rain = 0
KBI1 231214Z 16002KT 17/16 A2999 RMK A01 T01730159  RH  091%=      5-min Rain = 0
KBI1 231215Z 15003KT 17/16 A2999 RMK A01 T01730159  RH  092%=      5-min Rain = 0
KBI1 231216Z 16002KT 17/16 A2999 RMK A01 T01730159  RH  092%=      5-min Rain = 0
KBI1 231217Z 16002KT 17/16 A2999 RMK A01 T01730159  RH  092%=      5-min Rain = 0
KBI1 231218Z 16002KT 17/16 A2999 RMK A01 T01730159  RH  092%=      5-min Rain = 0
KBI1 231219Z 15002KT 17/16 A2999 RMK A01 T01730160  RH  092%=      5-min Rain = 0
KBI1 231220Z 15001KT 17/16 A2999 RMK A01 T01720159  RH  092%=      5-min Rain = 0
KBI1 231221Z 16001KT 17/16 A2999 RMK A01 T01720159  RH  092%=      5-min Rain = 0
KBI1 231222Z 15001KT 17/16 A2999 RMK A01 T01720160  RH  092%=      5-min Rain = 0
KBI1 231223Z 14000KT 17/16 A2999 RMK A01 T01720159  RH  092%=      5-min Rain = 0
KBI1 231224Z 00000KT 17/16 A2999 RMK A01 T01720160  RH  092%=      5-min Rain = 0
KBI1 231225Z 16000KT 17/16 A2999 RMK A01 T01720160  RH  092%=      5-min Rain = 0
KBI1 231226Z 00000KT 17/16 A2999 RMK A01 T01720159  RH  092%=      5-min Rain = 0
KBI1 231227Z 00000KT 17/16 A2999 RMK A01 T01720159  RH  092%=      5-min Rain = 0
KBI1 231228Z 16000KT 17/16 A2999 RMK A01 T01720159  RH  092%=      5-min Rain = 0
KBI1 231229Z 15000KT 17/16 A2999 RMK A01 T01710159  RH  092%=      5-min Rain = 0
KBI1 231230Z 15001KT 17/16 A2999 RMK A01 T01720159  RH  092%=      5-min Rain = 0
KBI1 231231Z 15001KT 17/16 A2999 RMK A01 T01720159  RH  092%=      5-min Rain = 0
KBI1 231232Z 17002KT 17/16 A2999 RMK A01 T01720160  RH  092%=      5-min Rain = 0
KBI1 231233Z 15002KT 17/16 A2999 RMK A01 T01720159  RH  092%=      5-min Rain = 0
KBI1 231234Z 14001KT 17/16 A2999 RMK A01 T01720160  RH  093%=      5-min Rain = 0
KBI1 231235Z 12003KT 17/16 A2999 RMK A01 T01720160  RH  093%=      5-min Rain = 0
KBI1 231236Z 12003KT 17/16 A2999 RMK A01 T01720161  RH  093%=      5-min Rain = 0
KBI1 231237Z 13003KT 17/16 A2999 RMK A01 T01720161  RH  093%=      5-min Rain = 0
KBI1 231238Z 14003KT 17/16 A2999 RMK A01 T01720161  RH  093%=      5-min Rain = 0
KBI1 231239Z 14003KT 17/16 A2999 RMK A01 T01720161  RH  093%=      5-min Rain = 0
KBI1 231240Z 14003KT 17/16 A2999 RMK A01 T01720161  RH  094%=      5-min Rain = 0
KBI1 231241Z 13004KT 17/16 A2999 RMK A01 T01720161  RH  094%=      5-min Rain = 0
KBI1 231242Z 14004KT 17/16 A2999 RMK A01 T01710161  RH  094%=      5-min Rain = 0
KBI1 231243Z 15003KT 17/16 A2999 RMK A01 T01710161  RH  094%=      5-min Rain = 0
KBI1 231244Z 15003KT 17/16 A2999 RMK A01 T01710161  RH  094%=      5-min Rain = 0
KBI1 231245Z 15003KT 17/16 A2999 RMK A01 T01710161  RH  094%=      5-min Rain = 0
KBI1 231246Z 15004KT 17/16 A2999 RMK A01 T01710161  RH  094%=      5-min Rain = 0
KBI1 231247Z 15003KT 17/16 A2999 RMK A01 T01710161  RH  094%=      5-min Rain = 0
KBI1 231248Z 14003KT 17/16 A2999 RMK A01 T01710161  RH  094%=      5-min Rain = 0
KBI1 231249Z 16004KT 17/16 A2999 RMK A01 T01710161  RH  094%=      5-min Rain = 0
KBI1 231250Z 16003KT 17/16 A2999 RMK A01 T01700160  RH  094%=      5-min Rain = 0
KBI1 231251Z 16005KT 17/16 A2999 RMK A01 T01700161  RH  094%=      5-min Rain = 0
KBI1 231252Z 16006KT 17/16 A2999 RMK A01 T01700160  RH  094%=      5-min Rain = 0
KBI1 231253Z 16005KT 17/16 A2999 RMK A01 T01700160  RH  094%=      5-min Rain = 0
KBI1 231254Z 16005KT 17/16 A2999 RMK A01 T01710160  RH  094%=      5-min Rain = 0
KBI1 231255Z 15004KT 17/16 A2999 RMK A01 T01700160  RH  094%=      5-min Rain = 0
KBI1 231256Z 16004KT 17/16 A2999 RMK A01 T01700160  RH  094%=      5-min Rain = 0
KBI1 231257Z 15005KT 17/16 A2999 RMK A01 T01700160  RH  094%=      5-min Rain = 0
KBI1 231258Z 16006KT 17/16 A2999 RMK A01 T01710161  RH  094%=      5-min Rain = 0
KBI1 231259Z 15005KT 17/16 A30 RMK A01 T01700160  RH  094%=      5-min Rain = 0
KBI1 231300Z 16005KT 17/16 A30 RMK A01 T01700161  RH  094%=      5-min Rain = 0
KBI1 231301Z 15003KT 17/16 A30 RMK A01 T01700161  RH  094%=      5-min Rain = 0
KBI1 231302Z 15004KT 17/16 A30 RMK A01 T01700161  RH  094%=      5-min Rain = 0
KBI1 231303Z 13003KT 17/16 A30 RMK A01 T01700161  RH  094%=      5-min Rain = 0
KBI1 231304Z 14002KT 17/16 A30 RMK A01 T01700161  RH  094%=      5-min Rain = 0
KBI1 231305Z 14003KT 17/16 A30 RMK A01 T01700161  RH  095%=      5-min Rain = 0
KBI1 231306Z 15004KT 17/16 A30 RMK A01 T01700161  RH  095%=      5-min Rain = 0
KBI1 231307Z 14004KT 17/16 A30 RMK A01 T01700161  RH  095%=      5-min Rain = 0
KBI1 231308Z 14003KT 17/16 A30 RMK A01 T01690161  RH  095%=      5-min Rain = 0
KBI1 231309Z 14003KT 17/16 A30 RMK A01 T01700162  RH  095%=      5-min Rain = 0
KBI1 231310Z 14003KT 17/16 A30 RMK A01 T01690161  RH  095%=      5-min Rain = 0
KBI1 231311Z 13004KT 17/16 A30 RMK A01 T01690162  RH  095%=      5-min Rain = 0
KBI1 231312Z 14003KT 17/16 A30 RMK A01 T01690162  RH  095%=      5-min Rain = 0
KBI1 231313Z 14003KT 17/16 A30 RMK A01 T01690162  RH  095%=      5-min Rain = 0
KBI1 231314Z 14003KT 17/16 A30 RMK A01 T01690162  RH  095%=      5-min Rain = 0
KBI1 231315Z 15003KT 17/16 A30 RMK A01 T01690162  RH  096%=      5-min Rain = 0
KBI1 231316Z 14002KT 17/16 A30 RMK A01 T01690162  RH  096%=      5-min Rain = 0
KBI1 231317Z 15003KT 17/16 A30 RMK A01 T01690162  RH  096%=      5-min Rain = 0
KBI1 231318Z 15003KT 17/16 A30 RMK A01 T01690162  RH  096%=      5-min Rain = 0
KBI1 231319Z 15003KT 17/16 A30 RMK A01 T01690162  RH  096%=      5-min Rain = 0
KBI1 231320Z 16003KT 17/16 A30 RMK A01 T01690162  RH  096%=      5-min Rain = 0
KBI1 231321Z 15003KT 17/16 A30 RMK A01 T01690162  RH  096%=      5-min Rain = 0
KBI1 231322Z 14002KT 17/16 A30 RMK A01 T01690162  RH  096%=      5-min Rain = 0
KBI1 231323Z 15002KT 17/16 A30 RMK A01 T01690162  RH  096%=      5-min Rain = 0
KBI1 231324Z 16002KT 17/16 A3001 RMK A01 T01690162  RH  096%=      5-min Rain = 0
KBI1 231325Z 16002KT 17/16 A3001 RMK A01 T01690162  RH  096%=      5-min Rain = 0
KBI1 231326Z 17003KT 17/16 A3001 RMK A01 T01690162  RH  096%=      5-min Rain = 0
KBI1 231327Z 17003KT 17/16 A3001 RMK A01 T01690163  RH  096%=      5-min Rain = 0
KBI1 231328Z 18003KT 17/16 A3001 RMK A01 T01690163  RH  096%=      5-min Rain = 0
KBI1 231329Z 19003KT 17/16 A3001 RMK A01 T01690163  RH  096%=      5-min Rain = 0
KBI1 231330Z 19003KT 17/16 A3001 RMK A01 T01690163  RH  096%=      5-min Rain = 0
KBI1 231331Z 20003KT 17/16 A3002 RMK A01 T01690163  RH  096%=      5-min Rain = 0
KBI1 231332Z 20002KT 17/16 A3002 RMK A01 T01690162  RH  096%=      5-min Rain = 0
KBI1 231333Z 20001KT 17/16 A3002 RMK A01 T01690163  RH  096%=      5-min Rain = 0
KBI1 231334Z 20002KT 17/16 A3002 RMK A01 T01690163  RH  096%=      5-min Rain = 0
KBI1 231335Z 19001KT 17/16 A3002 RMK A01 T01690163  RH  096%=      5-min Rain = 0
KBI1 231336Z 20002KT 17/16 A3002 RMK A01 T01690163  RH  096%=      5-min Rain = 0
KBI1 231337Z 21002KT 17/16 A3002 RMK A01 T01690163  RH  096%=      5-min Rain = 0
KBI1 231338Z 22002KT 17/16 A3002 RMK A01 T01690163  RH  096%=      5-min Rain = 0
KBI1 231339Z 22002KT 17/16 A3002 RMK A01 T01680163  RH  096%=      5-min Rain = 0
KBI1 231340Z 21002KT 17/16 A3002 RMK A01 T01680163  RH  096%=      5-min Rain = 0
KBI1 231341Z 22002KT 17/16 A3002 RMK A01 T01690163  RH  096%=      5-min Rain = 0.01
KBI1 231342Z 22002KT 17/16 A3002 RMK A01 T01690163  RH  097%=      5-min Rain = 0
KBI1 231343Z 22002KT 17/16 A3002 RMK A01 T01680163  RH  097%=      5-min Rain = 0
KBI1 231344Z 22002KT 17/16 A3002 RMK A01 T01680163  RH  097%=      5-min Rain = 0
KBI1 231345Z 22002KT 17/16 A3002 RMK A01 T01680163  RH  097%=      5-min Rain = 0
KBI1 231346Z 22002KT 17/16 A3002 RMK A01 T01680163  RH  097%=      5-min Rain = 0
KBI1 231347Z 21003KT 17/16 A3002 RMK A01 T01680163  RH  097%=      5-min Rain = 0
KBI1 231348Z 21002KT 17/16 A3002 RMK A01 T01680163  RH  097%=      5-min Rain = 0
KBI1 231349Z 20002KT 17/16 A3002 RMK A01 T01680163  RH  097%=      5-min Rain = 0
KBI1 231350Z 22002KT 17/16 A3002 RMK A01 T01680163  RH  097%=      5-min Rain = 0
KBI1 231351Z 22002KT 17/16 A3002 RMK A01 T01680163  RH  097%=      5-min Rain = 0.01
KBI1 231352Z 24001KT 17/16 A3002 RMK A01 T01680163  RH  097%=      5-min Rain = 0
KBI1 231353Z 24002KT 17/16 A3002 RMK A01 T01680163  RH  097%=      5-min Rain = 0
KBI1 231354Z 24001KT 17/16 A3002 RMK A01 T01680163  RH  097%=      5-min Rain = 0
KBI1 231355Z 24001KT 17/16 A3002 RMK A01 T01680164  RH  097%=      5-min Rain = 0
KBI1 231356Z 25002KT 17/16 A3002 RMK A01 T01680164  RH  097%=      5-min Rain = 0
KBI1 231357Z 23002KT 17/16 A3002 RMK A01 T01680164  RH  097%=      5-min Rain = 0
KBI1 231358Z 21001KT 17/16 A3002 RMK A01 T01680164  RH  097%=      5-min Rain = 0
KBI1 231359Z 20001KT 17/16 A3002 RMK A01 T01680164  RH  097%=      5-min Rain = 0
KBI1 231400Z 20001KT 17/16 A3002 RMK A01 T01680164  RH  097%=      5-min Rain = 0
KBI1 231401Z 20002KT 17/16 A3002 RMK A01 T01690164  RH  097%=      5-min Rain = 0
KBI1 231402Z 20003KT 17/16 A3002 RMK A01 T01690164  RH  097%=      5-min Rain = 0
KBI1 231403Z 20003KT 17/16 A3002 RMK A01 T01690164  RH  097%=      5-min Rain = 0
KBI1 231404Z 19003KT 17/16 A3002 RMK A01 T01690164  RH  097%=      5-min Rain = 0
KBI1 231405Z 19003KT 17/16 A3002 RMK A01 T01680164  RH  097%=      5-min Rain = 0
KBI1 231406Z 20003KT 17/16 A3002 RMK A01 T01690164  RH  097%=      5-min Rain = 0
KBI1 231407Z 19003KT 17/16 A3002 RMK A01 T01680164  RH  097%=      5-min Rain = 0
KBI1 231408Z 18003KT 17/16 A3002 RMK A01 T01690164  RH  097%=      5-min Rain = 0
KBI1 231409Z 19003KT 17/16 A3002 RMK A01 T01680164  RH  097%=      5-min Rain = 0
KBI1 231410Z 19003KT 17/16 A3002 RMK A01 T01690164  RH  097%=      5-min Rain = 0.01
KBI1 231411Z 19003KT 17/16 A3002 RMK A01 T01680164  RH  097%=      5-min Rain = 0
KBI1 231412Z 19003KT 17/16 A3002 RMK A01 T01690164  RH  097%=      5-min Rain = 0
KBI1 231413Z 18002KT 17/16 A3002 RMK A01 T01680164  RH  097%=      5-min Rain = 0
KBI1 231414Z 19002KT 17/16 A3002 RMK A01 T01680164  RH  097%=      5-min Rain = 0
KBI1 231415Z 18001KT 17/16 A3002 RMK A01 T01680164  RH  097%=      5-min Rain = 0
KBI1 231416Z 17001KT 17/16 A3002 RMK A01 T01690164  RH  097%=      5-min Rain = 0
KBI1 231417Z 17001KT 17/16 A3002 RMK A01 T01690164  RH  097%=      5-min Rain = 0
KBI1 231418Z 17001KT 17/16 A3002 RMK A01 T01680164  RH  097%=      5-min Rain = 0
KBI1 231419Z 17002KT 17/16 A3002 RMK A01 T01680164  RH  097%=      5-min Rain = 0
KBI1 231420Z 17002KT 17/16 A3002 RMK A01 T01680164  RH  097%=      5-min Rain = 0
KBI1 231421Z 18002KT 17/16 A3002 RMK A01 T01680164  RH  097%=      5-min Rain = 0
KBI1 231422Z 17002KT 17/16 A3002 RMK A01 T01680164  RH  097%=      5-min Rain = 0
KBI1 231423Z 17002KT 17/16 A3002 RMK A01 T01680164  RH  097%=      5-min Rain = 0
KBI1 231424Z 18001KT 17/16 A3002 RMK A01 T01680164  RH  097%=      5-min Rain = 0
KBI1 231425Z 19001KT 17/16 A3002 RMK A01 T01680164  RH  097%=      5-min Rain = 0
KBI1 231426Z 20001KT 17/16 A3002 RMK A01 T01680164  RH  097%=      5-min Rain = 0
KBI1 231427Z 20000KT 17/16 A3002 RMK A01 T01680164  RH  097%=      5-min Rain = 0
KBI1 231428Z 00000KT 17/16 A3002 RMK A01 T01680163  RH  097%=      5-min Rain = 0
KBI1 231429Z 00000KT 17/16 A3002 RMK A01 T01680164  RH  097%=      5-min Rain = 0
KBI1 231430Z 00000KT 17/16 A3002 RMK A01 T01690164  RH  097%=      5-min Rain = 0
KBI1 231431Z 00000KT 17/17 A3002 RMK A01 T01690165  RH  097%=      5-min Rain = 0
KBI1 231432Z 00000KT 17/17 A3002 RMK A01 T01690165  RH  097%=      5-min Rain = 0
KBI1 231433Z 00000KT 17/17 A3002 RMK A01 T01690165  RH  097%=      5-min Rain = 0
KBI1 231434Z 20001KT 17/16 A3002 RMK A01 T01690164  RH  097%=      5-min Rain = 0
KBI1 231435Z 20000KT 17/16 A3002 RMK A01 T01690164  RH  097%=      5-min Rain = 0
KBI1 231436Z 19000KT 17/16 A3002 RMK A01 T01690164  RH  097%=      5-min Rain = 0
KBI1 231437Z 20001KT 17/16 A3002 RMK A01 T01690164  RH  097%=      5-min Rain = 0
KBI1 231438Z 20001KT 17/16 A3002 RMK A01 T01690164  RH  097%=      5-min Rain = 0
KBI1 231439Z 20001KT 17/16 A3002 RMK A01 T01690164  RH  097%=      5-min Rain = 0
KBI1 231440Z 19000KT 17/16 A3002 RMK A01 T01680163  RH  097%=      5-min Rain = 0
KBI1 231441Z 00000KT 17/16 A3002 RMK A01 T01680163  RH  097%=      5-min Rain = 0
KBI1 231442Z 00000KT 17/16 A3002 RMK A01 T01680163  RH  097%=      5-min Rain = 0
KBI1 231443Z 00000KT 17/16 A3002 RMK A01 T01690164  RH  097%=      5-min Rain = 0
KBI1 231444Z 17000KT 17/16 A3002 RMK A01 T01690164  RH  097%=      5-min Rain = 0
KBI1 231445Z 17000KT 17/17 A3002 RMK A01 T01690165  RH  097%=      5-min Rain = 0
KBI1 231446Z 00000KT 17/17 A3002 RMK A01 T01700165  RH  097%=      5-min Rain = 0
KBI1 231447Z 18000KT 17/17 A3002 RMK A01 T01700165  RH  097%=      5-min Rain = 0
KBI1 231448Z 18001KT 17/17 A3002 RMK A01 T01700165  RH  097%=      5-min Rain = 0
KBI1 231449Z 20001KT 17/17 A3002 RMK A01 T01700165  RH  097%=      5-min Rain = 0
KBI1 231450Z 21001KT 17/17 A3002 RMK A01 T01700165  RH  097%=      5-min Rain = 0
KBI1 231451Z 21001KT 17/17 A3002 RMK A01 T01700165  RH  097%=      5-min Rain = 0
KBI1 231452Z 19001KT 17/17 A3003 RMK A01 T01700165  RH  097%=      5-min Rain = 0
KBI1 231453Z 20001KT 17/17 A3003 RMK A01 T01710166  RH  097%=      5-min Rain = 0
KBI1 231454Z 20001KT 17/17 A3003 RMK A01 T01710166  RH  097%=      5-min Rain = 0
KBI1 231455Z 21001KT 17/17 A3003 RMK A01 T01710166  RH  097%=      5-min Rain = 0
KBI1 231456Z 21002KT 17/17 A3003 RMK A01 T01710165  RH  097%=      5-min Rain = 0
KBI1 231457Z 21002KT 17/17 A3003 RMK A01 T01700165  RH  097%=      5-min Rain = 0
KBI1 231458Z 21002KT 17/17 A3003 RMK A01 T01700165  RH  097%=      5-min Rain = 0
KBI1 231459Z 20002KT 17/17 A3003 RMK A01 T01700165  RH  096%=      5-min Rain = 0
KBI1 231500Z 19002KT 17/17 A3003 RMK A01 T01700165  RH  097%=      5-min Rain = 0
KBI1 231501Z 19001KT 17/17 A3003 RMK A01 T01710166  RH  097%=      5-min Rain = 0
KBI1 231502Z 18002KT 17/17 A3003 RMK A01 T01710165  RH  096%=      5-min Rain = 0
KBI1 231503Z 19002KT 17/17 A3003 RMK A01 T01710165  RH  096%=      5-min Rain = 0
KBI1 231504Z 20003KT 17/17 A3003 RMK A01 T01710166  RH  096%=      5-min Rain = 0
KBI1 231505Z 18003KT 17/17 A3003 RMK A01 T01710165  RH  096%=      5-min Rain = 0
KBI1 231506Z 18003KT 17/17 A3003 RMK A01 T01710165  RH  096%=      5-min Rain = 0
KBI1 231507Z 20003KT 17/17 A3003 RMK A01 T01710165  RH  096%=      5-min Rain = 0
KBI1 231508Z 20003KT 17/17 A3003 RMK A01 T01710165  RH  096%=      5-min Rain = 0
KBI1 231509Z 18002KT 17/17 A3003 RMK A01 T01710165  RH  096%=      5-min Rain = 0.01
KBI1 231510Z 19003KT 17/17 A3003 RMK A01 T01720166  RH  096%=      5-min Rain = 0
KBI1 231511Z 19003KT 17/17 A3003 RMK A01 T01720167  RH  097%=      5-min Rain = 0
KBI1 231512Z 20003KT 17/17 A3003 RMK A01 T01720167  RH  097%=      5-min Rain = 0
KBI1 231513Z 20003KT 17/17 A3003 RMK A01 T01720167  RH  097%=      5-min Rain = 0
KBI1 231514Z 20003KT 17/17 A3003 RMK A01 T01720166  RH  096%=      5-min Rain = 0
KBI1 231515Z 20003KT 17/17 A3003 RMK A01 T01720166  RH  096%=      5-min Rain = 0
KBI1 231516Z 20002KT 17/17 A3002 RMK A01 T01710166  RH  096%=      5-min Rain = 0
KBI1 231517Z 21002KT 17/17 A3002 RMK A01 T01710166  RH  096%=      5-min Rain = 0
KBI1 231518Z 21003KT 17/17 A3002 RMK A01 T01720166  RH  097%=      5-min Rain = 0
KBI1 231519Z 21003KT 17/17 A3002 RMK A01 T01720166  RH  096%=      5-min Rain = 0
KBI1 231520Z 21003KT 17/17 A3002 RMK A01 T01720166  RH  096%=      5-min Rain = 0
KBI1 231521Z 21003KT 17/17 A3002 RMK A01 T01720167  RH  097%=      5-min Rain = 0
KBI1 231522Z 21003KT 17/17 A3002 RMK A01 T01720166  RH  097%=      5-min Rain = 0
KBI1 231523Z 20003KT 17/17 A3002 RMK A01 T01720167  RH  097%=      5-min Rain = 0
KBI1 231524Z 20002KT 17/17 A3002 RMK A01 T01720167  RH  097%=      5-min Rain = 0
KBI1 231525Z 19002KT 17/17 A3002 RMK A01 T01720167  RH  097%=      5-min Rain = 0
KBI1 231526Z 20002KT 17/17 A3002 RMK A01 T01720167  RH  097%=      5-min Rain = 0
KBI1 231527Z 18003KT 17/17 A3002 RMK A01 T01730168  RH  097%=      5-min Rain = 0
KBI1 231528Z 18003KT 17/17 A3002 RMK A01 T01730167  RH  097%=      5-min Rain = 0
KBI1 231529Z 18003KT 17/17 A3002 RMK A01 T01720167  RH  097%=      5-min Rain = 0.01
KBI1 231530Z 18003KT 17/17 A3002 RMK A01 T01720166  RH  096%=      5-min Rain = 0
KBI1 231531Z 18003KT 17/17 A3002 RMK A01 T01720167  RH  097%=      5-min Rain = 0
KBI1 231532Z 18003KT 17/17 A3002 RMK A01 T01720166  RH  097%=      5-min Rain = 0
KBI1 231533Z 18002KT 17/17 A3002 RMK A01 T01720166  RH  097%=      5-min Rain = 0
KBI1 231534Z 20003KT 17/17 A3003 RMK A01 T01720166  RH  097%=      5-min Rain = 0
KBI1 231535Z 19003KT 17/17 A3003 RMK A01 T01720167  RH  097%=      5-min Rain = 0
KBI1 231536Z 19002KT 17/17 A3003 RMK A01 T01730168  RH  097%=      5-min Rain = 0
KBI1 231537Z 20003KT 17/17 A3003 RMK A01 T01730168  RH  097%=      5-min Rain = 0
KBI1 231538Z 19003KT 17/17 A3003 RMK A01 T01730168  RH  097%=      5-min Rain = 0
KBI1 231539Z 18002KT 17/17 A3003 RMK A01 T01730167  RH  097%=      5-min Rain = 0
KBI1 231540Z 18002KT 17/17 A3003 RMK A01 T01720167  RH  097%=      5-min Rain = 0
KBI1 231541Z 18002KT 17/17 A3003 RMK A01 T01720167  RH  097%=      5-min Rain = 0.01
KBI1 231542Z 17002KT 17/17 A3003 RMK A01 T01720167  RH  097%=      5-min Rain = 0
KBI1 231543Z 13002KT 17/17 A3003 RMK A01 T01730168  RH  097%=      5-min Rain = 0
KBI1 231544Z 15002KT 17/17 A3003 RMK A01 T01730168  RH  097%=      5-min Rain = 0
KBI1 231545Z 16002KT 17/17 A3003 RMK A01 T01730168  RH  097%=      5-min Rain = 0
KBI1 231546Z 16002KT 17/17 A3003 RMK A01 T01720167  RH  097%=      5-min Rain = 0
KBI1 231547Z 17002KT 17/17 A3003 RMK A01 T01720166  RH  097%=      5-min Rain = 0
KBI1 231548Z 16002KT 17/17 A3003 RMK A01 T01720166  RH  097%=      5-min Rain = 0
KBI1 231549Z 16001KT 17/17 A3003 RMK A01 T01720166  RH  097%=      5-min Rain = 0.01
KBI1 231550Z 15001KT 17/17 A3003 RMK A01 T01720167  RH  097%=      5-min Rain = 0
KBI1 231551Z 17001KT 17/17 A3003 RMK A01 T01720166  RH  097%=      5-min Rain = 0
KBI1 231552Z 14002KT 17/17 A3003 RMK A01 T01720167  RH  097%=      5-min Rain = 0
KBI1 231553Z 13002KT 17/17 A3003 RMK A01 T01720167  RH  097%=      5-min Rain = 0
KBI1 231554Z 15001KT 17/17 A3003 RMK A01 T01720167  RH  097%=      5-min Rain = 0
KBI1 231555Z 17001KT 17/17 A3003 RMK A01 T01720167  RH  097%=      5-min Rain = 0
KBI1 231556Z 17002KT 17/17 A3003 RMK A01 T01730168  RH  097%=      5-min Rain = 0
KBI1 231557Z 16002KT 17/17 A3003 RMK A01 T01730168  RH  097%=      5-min Rain = 0
KBI1 231558Z 16001KT 17/17 A3003 RMK A01 T01730167  RH  097%=      5-min Rain = 0
KBI1 231559Z 16002KT 17/17 A3003 RMK A01 T01730168  RH  097%=      5-min Rain = 0
KBI1 231600Z 17002KT 17/17 A3003 RMK A01 T01730168  RH  097%=      5-min Rain = 0
KBI1 231601Z 18002KT 17/17 A3003 RMK A01 T01740169  RH  097%=      5-min Rain = 0
KBI1 231602Z 17002KT 18/17 A3003 RMK A01 T01750170  RH  097%=      5-min Rain = 0
KBI1 231603Z 13002KT 17/17 A3003 RMK A01 T01740169  RH  097%=      5-min Rain = 0
KBI1 231604Z 13003KT 18/17 A3003 RMK A01 T01750170  RH  097%=      5-min Rain = 0
KBI1 231605Z 15003KT 18/17 A3003 RMK A01 T01750169  RH  096%=      5-min Rain = 0
KBI1 231606Z 16003KT 17/17 A3003 RMK A01 T01740168  RH  096%=      5-min Rain = 0
KBI1 231607Z 16004KT 17/17 A3003 RMK A01 T01740168  RH  096%=      5-min Rain = 0
KBI1 231608Z 14003KT 17/17 A3003 RMK A01 T01740167  RH  096%=      5-min Rain = 0
KBI1 231609Z 15002KT 17/17 A3003 RMK A01 T01740167  RH  096%=      5-min Rain = 0
KBI1 231610Z 16002KT 17/17 A3003 RMK A01 T01740167  RH  096%=      5-min Rain = 0
KBI1 231611Z 17002KT 17/17 A3003 RMK A01 T01740167  RH  096%=      5-min Rain = 0
KBI1 231612Z 16003KT 18/17 A3003 RMK A01 T01750168  RH  096%=      5-min Rain = 0
KBI1 231613Z 16003KT 18/17 A3003 RMK A01 T01750168  RH  096%=      5-min Rain = 0
KBI1 231614Z 16004KT 18/17 A3003 RMK A01 T01750169  RH  096%=      5-min Rain = 0
KBI1 231615Z 14003KT 18/17 A3003 RMK A01 T01760169  RH  096%=      5-min Rain = 0
KBI1 231616Z 14003KT 18/17 A3003 RMK A01 T01760168  RH  095%=      5-min Rain = 0
KBI1 231617Z 14003KT 18/17 A3003 RMK A01 T01750168  RH  095%=      5-min Rain = 0
KBI1 231618Z 13003KT 18/17 A3003 RMK A01 T01750167  RH  095%=      5-min Rain = 0
KBI1 231619Z 15003KT 18/17 A3003 RMK A01 T01750167  RH  095%=      5-min Rain = 0
KBI1 231620Z 16003KT 18/17 A3003 RMK A01 T01750167  RH  095%=      5-min Rain = 0
KBI1 231621Z 16003KT 18/17 A3003 RMK A01 T01760168  RH  095%=      5-min Rain = 0
KBI1 231622Z 15002KT 18/17 A3003 RMK A01 T01760168  RH  095%=      5-min Rain = 0
KBI1 231623Z 15002KT 18/17 A3003 RMK A01 T01770170  RH  095%=      5-min Rain = 0
KBI1 231624Z 16003KT 18/17 A3003 RMK A01 T01780170  RH  095%=      5-min Rain = 0
KBI1 231625Z 15003KT 18/17 A3003 RMK A01 T01780170  RH  095%=      5-min Rain = 0
KBI1 231626Z 15003KT 18/17 A3003 RMK A01 T01780169  RH  095%=      5-min Rain = 0
KBI1 231627Z 17002KT 18/17 A3003 RMK A01 T01780169  RH  095%=      5-min Rain = 0
KBI1 231628Z 16002KT 18/17 A3003 RMK A01 T01790170  RH  095%=      5-min Rain = 0
KBI1 231629Z 16003KT 18/17 A3003 RMK A01 T01790169  RH  094%=      5-min Rain = 0
KBI1 231630Z 16003KT 18/17 A3003 RMK A01 T01790169  RH  094%=      5-min Rain = 0
KBI1 231631Z 15003KT 18/17 A3003 RMK A01 T01790169  RH  094%=      5-min Rain = 0
KBI1 231632Z 11002KT 18/17 A3003 RMK A01 T01790169  RH  094%=      5-min Rain = 0
KBI1 231633Z 13005KT 18/17 A3003 RMK A01 T01790169  RH  094%=      5-min Rain = 0
KBI1 231634Z 14004KT 18/17 A3003 RMK A01 T01780167  RH  093%=      5-min Rain = 0
KBI1 231635Z 11003KT 18/17 A3003 RMK A01 T01780167  RH  093%=      5-min Rain = 0
KBI1 231636Z 11004KT 18/17 A3003 RMK A01 T01780167  RH  093%=      5-min Rain = 0
KBI1 231637Z 12004KT 18/17 A3003 RMK A01 T01780167  RH  093%=      5-min Rain = 0
KBI1 231638Z 11004KT 18/17 A3003 RMK A01 T01790168  RH  093%=      5-min Rain = 0
KBI1 231639Z 12003KT 18/17 A3003 RMK A01 T01780167  RH  093%=      5-min Rain = 0
KBI1 231640Z 13003KT 18/17 A3003 RMK A01 T01780168  RH  094%=      5-min Rain = 0
KBI1 231641Z 14004KT 18/17 A3003 RMK A01 T01790169  RH  094%=      5-min Rain = 0
KBI1 231642Z 14003KT 18/17 A3003 RMK A01 T01790168  RH  093%=      5-min Rain = 0
KBI1 231643Z 14003KT 18/17 A3003 RMK A01 T01790169  RH  094%=      5-min Rain = 0
KBI1 231644Z 14004KT 18/17 A3003 RMK A01 T01790168  RH  093%=      5-min Rain = 0
KBI1 231645Z 16002KT 18/17 A3003 RMK A01 T01790168  RH  093%=      5-min Rain = 0
KBI1 231646Z 13003KT 18/17 A3003 RMK A01 T01790169  RH  094%=      5-min Rain = 0
KBI1 231647Z 13005KT 18/17 A3003 RMK A01 T01790169  RH  093%=      5-min Rain = 0
KBI1 231648Z 12005KT 18/17 A3003 RMK A01 T01790168  RH  093%=      5-min Rain = 0
KBI1 231649Z 11005KT 18/17 A3003 RMK A01 T01790168  RH  093%=      5-min Rain = 0
KBI1 231650Z 12005KT 18/17 A3003 RMK A01 T01800168  RH  093%=      5-min Rain = 0
KBI1 231651Z 12004KT 18/17 A3003 RMK A01 T01800168  RH  093%=      5-min Rain = 0
KBI1 231652Z 12004KT 18/17 A3003 RMK A01 T01810170  RH  093%=      5-min Rain = 0
KBI1 231653Z 12004KT 18/17 A3003 RMK A01 T01820169  RH  092%=      5-min Rain = 0
KBI1 231654Z 11004KT 18/17 A3003 RMK A01 T01840174  RH  094%=      5-min Rain = 0
KBI1 231655Z 10005KT 19/17 A3003 RMK A01 T01850173  RH  093%=      5-min Rain = 0
KBI1 231656Z 12004KT 19/17 A3003 RMK A01 T01850172  RH  092%=      5-min Rain = 0
KBI1 231657Z 12004KT 19/17 A3002 RMK A01 T01850171  RH  091%=      5-min Rain = 0
KBI1 231658Z 10004KT 19/17 A3002 RMK A01 T01860172  RH  092%=      5-min Rain = 0
KBI1 231659Z 10006KT 19/17 A3002 RMK A01 T01860171  RH  091%=      5-min Rain = 0
KBI1 231700Z 11004KT 19/17 A3003 RMK A01 T01860172  RH  091%=      5-min Rain = 0
KBI1 231701Z 11005KT 19/17 A3003 RMK A01 T01870173  RH  091%=      5-min Rain = 0
KBI1 231702Z 12005KT 19/17 A3003 RMK A01 T01880171  RH  090%=      5-min Rain = 0
KBI1 231703Z 11006KT 19/17 A3003 RMK A01 T01880171  RH  090%=      5-min Rain = 0
KBI1 231704Z 10005KT 19/17 A3003 RMK A01 T01880171  RH  090%=      5-min Rain = 0
KBI1 231705Z 12005KT 19/17 A3002 RMK A01 T01880171  RH  090%=      5-min Rain = 0
KBI1 231706Z 12005KT 19/17 A3002 RMK A01 T01880169  RH  089%=      5-min Rain = 0
KBI1 231707Z 12004KT 19/17 A3002 RMK A01 T01880169  RH  088%=      5-min Rain = 0
KBI1 231708Z 13004KT 19/17 A3002 RMK A01 T01890172  RH  090%=      5-min Rain = 0
KBI1 231709Z 12005KT 19/17 A3002 RMK A01 T01900171  RH  089%=      5-min Rain = 0
KBI1 231710Z 11006KT 19/17 A3002 RMK A01 T01910174  RH  090%=      5-min Rain = 0
KBI1 231711Z 11007KT 19/17 A3002 RMK A01 T01910172  RH  089%=      5-min Rain = 0
KBI1 231712Z 12006KT 19/17 A3002 RMK A01 T01910172  RH  089%=      5-min Rain = 0
KBI1 231713Z 12007KT 19/17 A3002 RMK A01 T01910173  RH  089%=      5-min Rain = 0
KBI1 231714Z 12006KT 19/17 A3002 RMK A01 T01910171  RH  088%=      5-min Rain = 0
KBI1 231715Z 12005KT 19/17 A3002 RMK A01 T01910172  RH  089%=      5-min Rain = 0
KBI1 231716Z 13005KT 19/17 A3002 RMK A01 T01910172  RH  088%=      5-min Rain = 0
KBI1 231717Z 10004KT 19/18 A3002 RMK A01 T01930175  RH  090%=      5-min Rain = 0
KBI1 231718Z 11005KT 19/17 A3002 RMK A01 T01930171  RH  087%=      5-min Rain = 0
KBI1 231719Z 10005KT 19/17 A3002 RMK A01 T01920170  RH  087%=      5-min Rain = 0
KBI1 231720Z 12004KT 19/17 A3002 RMK A01 T01910171  RH  088%=      5-min Rain = 0
KBI1 231721Z 11005KT 19/17 A3002 RMK A01 T01920171  RH  088%=      5-min Rain = 0
KBI1 231722Z 11006KT 19/17 A3002 RMK A01 T01910170  RH  088%=      5-min Rain = 0
KBI1 231723Z 11007KT 19/17 A3002 RMK A01 T01900169  RH  088%=      5-min Rain = 0
KBI1 231724Z 12006KT 19/17 A3002 RMK A01 T01880169  RH  088%=      5-min Rain = 0
KBI1 231725Z 12006KT 19/17 A3002 RMK A01 T01880170  RH  089%=      5-min Rain = 0
KBI1 231726Z 12007KT 19/17 A3002 RMK A01 T01880169  RH  089%=      5-min Rain = 0
KBI1 231727Z 11005KT 19/17 A3002 RMK A01 T01880169  RH  089%=      5-min Rain = 0
KBI1 231728Z 10008KT 19/17 A3002 RMK A01 T01880170  RH  089%=      5-min Rain = 0
KBI1 231729Z 10006KT 19/17 A3002 RMK A01 T01880169  RH  089%=      5-min Rain = 0
KBI1 231730Z 09005KT 19/17 A3002 RMK A01 T01880170  RH  089%=      5-min Rain = 0
KBI1 231731Z 10005KT 19/17 A3002 RMK A01 T01890172  RH  090%=      5-min Rain = 0
KBI1 231732Z 12006KT 19/17 A3002 RMK A01 T01890172  RH  090%=      5-min Rain = 0
KBI1 231733Z 13005KT 19/17 A3002 RMK A01 T01900172  RH  089%=      5-min Rain = 0
KBI1 231734Z 12007KT 19/17 A3002 RMK A01 T01910171  RH  088%=      5-min Rain = 0
KBI1 231735Z 11006KT 19/17 A3002 RMK A01 T01910170  RH  088%=      5-min Rain = 0
KBI1 231736Z 12007KT 19/17 A3002 RMK A01 T01910169  RH  087%=      5-min Rain = 0
KBI1 231737Z 11006KT 19/17 A3002 RMK A01 T01920168  RH  086%=      5-min Rain = 0
KBI1 231738Z 11006KT 19/17 A3002 RMK A01 T01910168  RH  087%=      5-min Rain = 0
KBI1 231739Z 11006KT 19/17 A3002 RMK A01 T01910169  RH  087%=      5-min Rain = 0
KBI1 231740Z 10006KT 19/17 A3002 RMK A01 T01910168  RH  086%=      5-min Rain = 0
KBI1 231741Z 10007KT 19/17 A3002 RMK A01 T01910171  RH  088%=      5-min Rain = 0
KBI1 231742Z 10006KT 19/17 A3002 RMK A01 T01910168  RH  087%=      5-min Rain = 0
KBI1 231743Z 10005KT 19/17 A3002 RMK A01 T01900168  RH  087%=      5-min Rain = 0
KBI1 231744Z 11004KT 19/17 A3002 RMK A01 T01900170  RH  088%=      5-min Rain = 0
KBI1 231745Z 11006KT 19/17 A3002 RMK A01 T01920172  RH  088%=      5-min Rain = 0
KBI1 231746Z 12006KT 19/17 A3002 RMK A01 T01930170  RH  087%=      5-min Rain = 0
KBI1 231747Z 13005KT 19/17 A3002 RMK A01 T01930169  RH  086%=      5-min Rain = 0
KBI1 231748Z 12004KT 19/17 A3002 RMK A01 T01940172  RH  087%=      5-min Rain = 0
KBI1 231749Z 12004KT 20/17 A3002 RMK A01 T01950173  RH  087%=      5-min Rain = 0
KBI1 231750Z 13005KT 20/17 A3002 RMK A01 T01970173  RH  086%=      5-min Rain = 0
KBI1 231751Z 09006KT 20/17 A3002 RMK A01 T01970171  RH  085%=      5-min Rain = 0
KBI1 231752Z 11005KT 20/17 A3002 RMK A01 T01970173  RH  086%=      5-min Rain = 0
KBI1 231753Z 12006KT 20/17 A3002 RMK A01 T01970174  RH  086%=      5-min Rain = 0
KBI1 231754Z 12007KT 20/17 A3002 RMK A01 T01970173  RH  086%=      5-min Rain = 0
KBI1 231755Z 11006KT 20/17 A3002 RMK A01 T01950169  RH  085%=      5-min Rain = 0
KBI1 231756Z 12006KT 19/17 A3002 RMK A01 T01940168  RH  085%=      5-min Rain = 0
KBI1 231757Z 11006KT 19/17 A3002 RMK A01 T01930170  RH  087%=      5-min Rain = 0
KBI1 231758Z 10005KT 19/17 A3002 RMK A01 T01930171  RH  087%=      5-min Rain = 0
KBI1 231759Z 11007KT 19/17 A3002 RMK A01 T01930171  RH  087%=      5-min Rain = 0
KBI1 231800Z 11007KT 19/17 A3002 RMK A01 T01930169  RH  086%=      5-min Rain = 0
KBI1 231801Z 11006KT 19/17 A3002 RMK A01 T01920167  RH  085%=      5-min Rain = 0
KBI1 231802Z 11006KT 19/17 A3002 RMK A01 T01920168  RH  086%=      5-min Rain = 0
KBI1 231803Z 11007KT 19/17 A3002 RMK A01 T01920168  RH  086%=      5-min Rain = 0
KBI1 231804Z 10006KT 19/17 A3002 RMK A01 T01910167  RH  086%=      5-min Rain = 0
KBI1 231805Z 10005KT 19/17 A3002 RMK A01 T01910170  RH  087%=      5-min Rain = 0
KBI1 231806Z 09005KT 19/17 A3002 RMK A01 T01920171  RH  088%=      5-min Rain = 0
KBI1 231807Z 11006KT 19/17 A3002 RMK A01 T01930170  RH  087%=      5-min Rain = 0
KBI1 231808Z 12006KT 19/17 A3002 RMK A01 T01930169  RH  086%=      5-min Rain = 0
KBI1 231809Z 11007KT 19/17 A3002 RMK A01 T01920168  RH  086%=      5-min Rain = 0
KBI1 231810Z 10007KT 19/17 A3002 RMK A01 T01920168  RH  086%=      5-min Rain = 0
KBI1 231811Z 09006KT 19/17 A3002 RMK A01 T01920167  RH  086%=      5-min Rain = 0
KBI1 231812Z 09005KT 19/17 A3002 RMK A01 T01910168  RH  086%=      5-min Rain = 0
KBI1 231813Z 13005KT 19/17 A3002 RMK A01 T01910170  RH  088%=      5-min Rain = 0
KBI1 231814Z 12004KT 19/17 A3001 RMK A01 T01930172  RH  088%=      5-min Rain = 0
KBI1 231815Z 11004KT 19/17 A3001 RMK A01 T01940169  RH  085%=      5-min Rain = 0
KBI1 231816Z 12005KT 19/17 A3001 RMK A01 T01940169  RH  085%=      5-min Rain = 0
KBI1 231817Z 13005KT 20/17 A3001 RMK A01 T01950169  RH  085%=      5-min Rain = 0
KBI1 231818Z 13006KT 20/17 A3001 RMK A01 T01950169  RH  085%=      5-min Rain = 0
KBI1 231819Z 11007KT 20/17 A3001 RMK A01 T01950168  RH  084%=      5-min Rain = 0
KBI1 231820Z 10008KT 20/17 A3001 RMK A01 T01950168  RH  084%=      5-min Rain = 0
KBI1 231821Z 09007KT 19/17 A3001 RMK A01 T01940168  RH  085%=      5-min Rain = 0
KBI1 231822Z 10006KT 19/17 A3001 RMK A01 T01930168  RH  085%=      5-min Rain = 0
KBI1 231823Z 11005KT 19/17 A3001 RMK A01 T01940172  RH  087%=      5-min Rain = 0
KBI1 231824Z 11007KT 19/17 A3001 RMK A01 T01940171  RH  086%=      5-min Rain = 0
KBI1 231825Z 11006KT 19/17 A3001 RMK A01 T01940168  RH  085%=      5-min Rain = 0
KBI1 231826Z 12006KT 19/17 A3001 RMK A01 T01930168  RH  085%=      5-min Rain = 0
KBI1 231827Z 11007KT 19/17 A3001 RMK A01 T01920167  RH  086%=      5-min Rain = 0
KBI1 231828Z 11006KT 19/17 A3001 RMK A01 T01920168  RH  086%=      5-min Rain = 0
KBI1 231829Z 10007KT 19/17 A3001 RMK A01 T01910167  RH  086%=      5-min Rain = 0
KBI1 231830Z 10007KT 19/17 A3001 RMK A01 T01910167  RH  086%=      5-min Rain = 0
KBI1 231831Z 10007KT 19/17 A3001 RMK A01 T01900166  RH  086%=      5-min Rain = 0
KBI1 231832Z 11005KT 19/17 A3001 RMK A01 T01900168  RH  087%=      5-min Rain = 0
KBI1 231833Z 09006KT 19/17 A3001 RMK A01 T01900168  RH  087%=      5-min Rain = 0
KBI1 231834Z 11006KT 19/17 A3001 RMK A01 T01890169  RH  088%=      5-min Rain = 0
KBI1 231835Z 11007KT 19/17 A3001 RMK A01 T01900169  RH  087%=      5-min Rain = 0
KBI1 231836Z 11006KT 19/17 A3001 RMK A01 T01900169  RH  088%=      5-min Rain = 0
KBI1 231837Z 12007KT 19/17 A3001 RMK A01 T01900169  RH  087%=      5-min Rain = 0
KBI1 231838Z 11007KT 19/17 A3001 RMK A01 T01900167  RH  086%=      5-min Rain = 0
KBI1 231839Z 11007KT 19/17 A3001 RMK A01 T01900167  RH  086%=      5-min Rain = 0
KBI1 231840Z 09006KT 19/17 A3001 RMK A01 T01900167  RH  087%=      5-min Rain = 0
KBI1 231841Z 09007KT 19/17 A3001 RMK A01 T01900168  RH  087%=      5-min Rain = 0
KBI1 231842Z 11006KT 19/17 A3001 RMK A01 T01900168  RH  087%=      5-min Rain = 0
KBI1 231843Z 12005KT 19/17 A3001 RMK A01 T01910169  RH  087%=      5-min Rain = 0
KBI1 231844Z 12006KT 19/17 A30 RMK A01 T01910167  RH  086%=      5-min Rain = 0
KBI1 231845Z 10004KT 19/17 A30 RMK A01 T01910167  RH  086%=      5-min Rain = 0
KBI1 231846Z 10006KT 19/17 A30 RMK A01 T01920169  RH  086%=      5-min Rain = 0
KBI1 231847Z 10005KT 19/17 A30 RMK A01 T01920169  RH  086%=      5-min Rain = 0
KBI1 231848Z 10006KT 19/17 A30 RMK A01 T01920170  RH  087%=      5-min Rain = 0
KBI1 231849Z 10006KT 19/17 A30 RMK A01 T01930169  RH  086%=      5-min Rain = 0
KBI1 231850Z 11005KT 19/17 A30 RMK A01 T01930170  RH  087%=      5-min Rain = 0
KBI1 231851Z 08006KT 19/17 A30 RMK A01 T01940171  RH  087%=      5-min Rain = 0
KBI1 231852Z 10008KT 19/17 A30 RMK A01 T01940169  RH  085%=      5-min Rain = 0
KBI1 231853Z 10007KT 19/17 A30 RMK A01 T01930169  RH  086%=      5-min Rain = 0
KBI1 231854Z 10008KT 19/17 A30 RMK A01 T01930169  RH  086%=      5-min Rain = 0
KBI1 231855Z 09007KT 19/17 A30 RMK A01 T01930169  RH  086%=      5-min Rain = 0
KBI1 231856Z 09007KT 19/17 A30 RMK A01 T01940169  RH  085%=      5-min Rain = 0
KBI1 231857Z 09007KT 19/17 A30 RMK A01 T01940170  RH  086%=      5-min Rain = 0
KBI1 231858Z 08005KT 20/17 A2999 RMK A01 T01950172  RH  086%=      5-min Rain = 0
KBI1 231859Z 09007KT 20/17 A2999 RMK A01 T01970173  RH  086%=      5-min Rain = 0
KBI1 231900Z 08005KT 20/17 A2999 RMK A01 T01980173  RH  085%=      5-min Rain = 0
KBI1 231901Z 10006KT 20/17 A2999 RMK A01 T02000174  RH  085%=      5-min Rain = 0
KBI1 231902Z 13007KT 20/17 A2999 RMK A01 T02010174  RH  084%=      5-min Rain = 0
KBI1 231903Z 12007KT 20/17 A2999 RMK A01 T02010172  RH  083%=      5-min Rain = 0
KBI1 231904Z 12006KT 20/17 A2999 RMK A01 T02020172  RH  083%=      5-min Rain = 0
KBI1 231905Z 10008KT 20/17 A2999 RMK A01 T02010173  RH  084%=      5-min Rain = 0
KBI1 231906Z 09010KT 20/17 A2999 RMK A01 T02010171  RH  083%=      5-min Rain = 0
KBI1 231907Z 11007KT 20/17 A2999 RMK A01 T01990170  RH  083%=      5-min Rain = 0
KBI1 231908Z 10007KT 20/17 A2999 RMK A01 T01990172  RH  084%=      5-min Rain = 0
KBI1 231909Z 11007KT 20/17 A2999 RMK A01 T01990170  RH  083%=      5-min Rain = 0
KBI1 231910Z 11007KT 20/17 A2999 RMK A01 T01980171  RH  084%=      5-min Rain = 0
KBI1 231911Z 13007KT 20/17 A2999 RMK A01 T01980170  RH  083%=      5-min Rain = 0
KBI1 231912Z 12007KT 20/17 A2999 RMK A01 T01970167  RH  083%=      5-min Rain = 0
KBI1 231913Z 12007KT 20/17 A2999 RMK A01 T01970167  RH  083%=      5-min Rain = 0
KBI1 231914Z 13007KT 20/17 A2999 RMK A01 T01970169  RH  084%=      5-min Rain = 0
KBI1 231915Z 12007KT 20/17 A2999 RMK A01 T01990170  RH  084%=      5-min Rain = 0
KBI1 231916Z 12006KT 20/17 A2999 RMK A01 T02010173  RH  084%=      5-min Rain = 0
KBI1 231917Z 13006KT 20/18 A2999 RMK A01 T02030175  RH  084%=      5-min Rain = 0
KBI1 231918Z 13008KT 21/17 A2999 RMK A01 T02050174  RH  082%=      5-min Rain = 0
KBI1 231919Z 12009KT 21/17 A2999 RMK A01 T02060172  RH  081%=      5-min Rain = 0
KBI1 231920Z 11010KT 21/17 A2999 RMK A01 T02050170  RH  081%=      5-min Rain = 0
KBI1 231921Z 10008KT 20/17 A2999 RMK A01 T02030172  RH  082%=      5-min Rain = 0
KBI1 231922Z 09008KT 20/17 A2999 RMK A01 T02020171  RH  082%=      5-min Rain = 0
KBI1 231923Z 09007KT 20/17 A2999 RMK A01 T02010172  RH  084%=      5-min Rain = 0
KBI1 231924Z 10008KT 20/17 A2999 RMK A01 T02010172  RH  083%=      5-min Rain = 0
KBI1 231925Z 09007KT 20/17 A2999 RMK A01 T02000169  RH  082%=      5-min Rain = 0
KBI1 231926Z 10007KT 20/17 A2999 RMK A01 T01990169  RH  083%=      5-min Rain = 0
KBI1 231927Z 09008KT 20/17 A2999 RMK A01 T01990170  RH  084%=      5-min Rain = 0
KBI1 231928Z 08008KT 20/17 A2999 RMK A01 T02000172  RH  084%=      5-min Rain = 0
KBI1 231929Z 11005KT 20/17 A2999 RMK A01 T02020173  RH  083%=      5-min Rain = 0
KBI1 231930Z 12005KT 21/18 A2999 RMK A01 T02050176  RH  083%=      5-min Rain = 0
KBI1 231931Z 12007KT 21/17 A2999 RMK A01 T02070171  RH  080%=      5-min Rain = 0
KBI1 231932Z 12005KT 21/17 A2998 RMK A01 T02070173  RH  081%=      5-min Rain = 0
KBI1 231933Z 11006KT 21/18 A2998 RMK A01 T02090175  RH  081%=      5-min Rain = 0
KBI1 231934Z 10007KT 21/17 A2998 RMK A01 T02100174  RH  080%=      5-min Rain = 0
KBI1 231935Z 10007KT 21/17 A2998 RMK A01 T02100174  RH  079%=      5-min Rain = 0
KBI1 231936Z 10008KT 21/17 A2998 RMK A01 T02100170  RH  078%=      5-min Rain = 0
KBI1 231937Z 09006KT 21/17 A2998 RMK A01 T02090171  RH  079%=      5-min Rain = 0
KBI1 231938Z 09007KT 21/17 A2998 RMK A01 T02090170  RH  078%=      5-min Rain = 0
KBI1 231939Z 08007KT 21/17 A2998 RMK A01 T02090172  RH  080%=      5-min Rain = 0
KBI1 231940Z 10008KT 21/17 A2998 RMK A01 T02080171  RH  079%=      5-min Rain = 0
KBI1 231941Z 12008KT 21/18 A2998 RMK A01 T02100175  RH  080%=      5-min Rain = 0
KBI1 231942Z 12008KT 21/17 A2998 RMK A01 T02100169  RH  077%=      5-min Rain = 0
KBI1 231943Z 12007KT 21/17 A2998 RMK A01 T02080168  RH  078%=      5-min Rain = 0
KBI1 231944Z 12005KT 21/17 A2998 RMK A01 T02080172  RH  080%=      5-min Rain = 0
KBI1 231945Z 12005KT 21/18 A2998 RMK A01 T02110175  RH  080%=      5-min Rain = 0
KBI1 231946Z 11008KT 21/17 A2998 RMK A01 T02140173  RH  078%=      5-min Rain = 0
KBI1 231947Z 12007KT 22/17 A2998 RMK A01 T02150171  RH  076%=      5-min Rain = 0
KBI1 231948Z 13005KT 22/17 A2998 RMK A01 T02150171  RH  076%=      5-min Rain = 0
KBI1 231949Z 12008KT 21/17 A2998 RMK A01 T02140173  RH  077%=      5-min Rain = 0
KBI1 231950Z 12007KT 22/17 A2998 RMK A01 T02150170  RH  076%=      5-min Rain = 0
KBI1 231951Z 13006KT 21/17 A2998 RMK A01 T02140167  RH  075%=      5-min Rain = 0
KBI1 231952Z 12008KT 21/17 A2998 RMK A01 T02130167  RH  075%=      5-min Rain = 0
KBI1 231953Z 13008KT 21/17 A2998 RMK A01 T02130169  RH  076%=      5-min Rain = 0
KBI1 231954Z 14007KT 21/17 A2998 RMK A01 T02120169  RH  076%=      5-min Rain = 0
KBI1 231955Z 13007KT 21/17 A2998 RMK A01 T02120171  RH  077%=      5-min Rain = 0
KBI1 231956Z 13009KT 21/17 A2998 RMK A01 T02130170  RH  077%=      5-min Rain = 0
KBI1 231957Z 12007KT 21/17 A2998 RMK A01 T02120170  RH  077%=      5-min Rain = 0
KBI1 231958Z 13008KT 21/17 A2998 RMK A01 T02110169  RH  077%=      5-min Rain = 0
KBI1 231959Z 14008KT 21/17 A2998 RMK A01 T02100167  RH  077%=      5-min Rain = 0
KBI1 232000Z 13008KT 21/17 A2998 RMK A01 T02080166  RH  076%=      5-min Rain = 0
KBI1 232001Z 14008KT 21/17 A2998 RMK A01 T02080165  RH  077%=      5-min Rain = 0
KBI1 232002Z 13007KT 21/17 A2998 RMK A01 T02070165  RH  077%=      5-min Rain = 0
KBI1 232003Z 14007KT 21/17 A2998 RMK A01 T02070165  RH  077%=      5-min Rain = 0
KBI1 232004Z 12007KT 21/17 A2997 RMK A01 T02070167  RH  078%=      5-min Rain = 0
KBI1 232005Z 13006KT 21/17 A2997 RMK A01 T02080168  RH  078%=      5-min Rain = 0
KBI1 232006Z 13007KT 21/17 A2997 RMK A01 T02090169  RH  078%=      5-min Rain = 0
KBI1 232007Z 13008KT 21/17 A2997 RMK A01 T02100168  RH  077%=      5-min Rain = 0
KBI1 232008Z 13009KT 21/17 A2997 RMK A01 T02110168  RH  076%=      5-min Rain = 0
KBI1 232009Z 13008KT 21/17 A2997 RMK A01 T02120170  RH  077%=      5-min Rain = 0
KBI1 232010Z 14012KT 21/17 A2997 RMK A01 T02140170  RH  076%=      5-min Rain = 0
KBI1 232011Z 12008KT 21/17 A2997 RMK A01 T02140171  RH  077%=      5-min Rain = 0
KBI1 232012Z 11008KT 22/17 A2997 RMK A01 T02150171  RH  076%=      5-min Rain = 0
KBI1 232013Z 13009KT 22/17 A2997 RMK A01 T02150169  RH  075%=      5-min Rain = 0
KBI1 232014Z 12007KT 21/17 A2997 RMK A01 T02130168  RH  075%=      5-min Rain = 0
KBI1 232015Z 11006KT 21/17 A2997 RMK A01 T02120170  RH  077%=      5-min Rain = 0
KBI1 232016Z 12008KT 21/17 A2997 RMK A01 T02120169  RH  076%=      5-min Rain = 0
KBI1 232017Z 13009KT 21/17 A2997 RMK A01 T02110168  RH  076%=      5-min Rain = 0
KBI1 232018Z 13009KT 21/17 A2997 RMK A01 T02100168  RH  076%=      5-min Rain = 0
KBI1 232019Z 12010KT 21/17 A2997 RMK A01 T02090166  RH  076%=      5-min Rain = 0
KBI1 232020Z 12010KT 21/17 A2997 RMK A01 T02080166  RH  077%=      5-min Rain = 0
KBI1 232021Z 12008KT 21/17 A2997 RMK A01 T02080166  RH  077%=      5-min Rain = 0
KBI1 232022Z 12008KT 21/17 A2997 RMK A01 T02080166  RH  077%=      5-min Rain = 0
KBI1 232023Z 12007KT 21/17 A2997 RMK A01 T02090167  RH  077%=      5-min Rain = 0
KBI1 232024Z 12006KT 21/17 A2997 RMK A01 T02090167  RH  077%=      5-min Rain = 0
KBI1 232025Z 13010KT 21/17 A2997 RMK A01 T02100168  RH  077%=      5-min Rain = 0
KBI1 232026Z 12010KT 21/17 A2997 RMK A01 T02110166  RH  076%=      5-min Rain = 0
KBI1 232027Z 12009KT 21/17 A2997 RMK A01 T02110168  RH  076%=      5-min Rain = 0
KBI1 232028Z 13007KT 21/17 A2997 RMK A01 T02110169  RH  077%=      5-min Rain = 0
KBI1 232029Z 12008KT 21/17 A2997 RMK A01 T02120172  RH  078%=      5-min Rain = 0
KBI1 232030Z 12009KT 21/17 A2997 RMK A01 T02130169  RH  076%=      5-min Rain = 0
KBI1 232031Z 12008KT 21/17 A2997 RMK A01 T02120169  RH  077%=      5-min Rain = 0
KBI1 232032Z 13008KT 21/17 A2997 RMK A01 T02110170  RH  077%=      5-min Rain = 0
KBI1 232033Z 13007KT 21/17 A2997 RMK A01 T02110169  RH  077%=      5-min Rain = 0
KBI1 232034Z 13010KT 21/17 A2996 RMK A01 T02110169  RH  077%=      5-min Rain = 0
KBI1 232035Z 11008KT 21/17 A2996 RMK A01 T02110168  RH  077%=      5-min Rain = 0
KBI1 232036Z 11007KT 21/17 A2996 RMK A01 T02110168  RH  076%=      5-min Rain = 0
KBI1 232037Z 11009KT 21/17 A2996 RMK A01 T02120169  RH  076%=      5-min Rain = 0
KBI1 232038Z 12008KT 21/17 A2996 RMK A01 T02120168  RH  076%=      5-min Rain = 0
KBI1 232039Z 12009KT 21/17 A2996 RMK A01 T02130169  RH  076%=      5-min Rain = 0
KBI1 232040Z 11007KT 21/17 A2996 RMK A01 T02120169  RH  076%=      5-min Rain = 0
KBI1 232041Z 11008KT 21/17 A2996 RMK A01 T02130170  RH  077%=      5-min Rain = 0
KBI1 232042Z 10007KT 21/17 A2996 RMK A01 T02120168  RH  076%=      5-min Rain = 0
KBI1 232043Z 09008G13KT 21/17 A2996 RMK A01 T02120171  RH  078%=      5-min Rain = 0
KBI1 232044Z 09009KT 21/17 A2996 RMK A01 T02120168  RH  076%=      5-min Rain = 0
KBI1 232045Z 09008KT 21/17 A2996 RMK A01 T02120171  RH  077%=      5-min Rain = 0
KBI1 232046Z 09007KT 21/17 A2996 RMK A01 T02120169  RH  076%=      5-min Rain = 0
KBI1 232047Z 11005KT 21/17 A2995 RMK A01 T02110170  RH  077%=      5-min Rain = 0
KBI1 232048Z 11006KT 21/17 A2995 RMK A01 T02120171  RH  078%=      5-min Rain = 0
KBI1 232049Z 12011KT 21/17 A2995 RMK A01 T02130170  RH  076%=      5-min Rain = 0
KBI1 232050Z 12010KT 21/17 A2995 RMK A01 T02130169  RH  076%=      5-min Rain = 0
KBI1 232051Z 13009KT 21/17 A2995 RMK A01 T02120169  RH  076%=      5-min Rain = 0
KBI1 232052Z 13008KT 21/17 A2995 RMK A01 T02130169  RH  076%=      5-min Rain = 0
KBI1 232053Z 12009KT 21/17 A2995 RMK A01 T02140172  RH  077%=      5-min Rain = 0
KBI1 232054Z 13008KT 22/17 A2995 RMK A01 T02160170  RH  075%=      5-min Rain = 0
KBI1 232055Z 12010KT 22/17 A2995 RMK A01 T02160170  RH  075%=      5-min Rain = 0
KBI1 232056Z 11010KT 22/17 A2995 RMK A01 T02160168  RH  074%=      5-min Rain = 0
KBI1 232057Z 12007KT 22/17 A2995 RMK A01 T02150169  RH  075%=      5-min Rain = 0
KBI1 232058Z 11006KT 22/17 A2995 RMK A01 T02150169  RH  075%=      5-min Rain = 0
KBI1 232059Z 11008KT 22/17 A2995 RMK A01 T02160171  RH  076%=      5-min Rain = 0
KBI1 232100Z 12009KT 22/17 A2995 RMK A01 T02160170  RH  075%=      5-min Rain = 0
KBI1 232101Z 12009KT 22/17 A2995 RMK A01 T02160170  RH  075%=      5-min Rain = 0
KBI1 232102Z 11009KT 22/17 A2995 RMK A01 T02160171  RH  075%=      5-min Rain = 0
KBI1 232103Z 12009KT 22/17 A2995 RMK A01 T02180170  RH  074%=      5-min Rain = 0
KBI1 232104Z 13008KT 22/17 A2995 RMK A01 T02180167  RH  073%=      5-min Rain = 0
KBI1 232105Z 12006KT 22/17 A2994 RMK A01 T02190169  RH  073%=      5-min Rain = 0
KBI1 232106Z 13009KT 22/17 A2994 RMK A01 T02200171  RH  074%=      5-min Rain = 0
KBI1 232107Z 13007KT 22/17 A2994 RMK A01 T02220172  RH  073%=      5-min Rain = 0
KBI1 232108Z 13007KT 22/17 A2994 RMK A01 T02230171  RH  072%=      5-min Rain = 0
KBI1 232109Z 15007KT 22/17 A2994 RMK A01 T02230172  RH  073%=      5-min Rain = 0
KBI1 232110Z 14008KT 22/17 A2994 RMK A01 T02240170  RH  071%=      5-min Rain = 0
KBI1 232111Z 15007KT 22/17 A2994 RMK A01 T02230172  RH  073%=      5-min Rain = 0
KBI1 232112Z 16007KT 22/17 A2994 RMK A01 T02240173  RH  073%=      5-min Rain = 0
KBI1 232113Z 13008KT 23/18 A2994 RMK A01 T02260175  RH  073%=      5-min Rain = 0
KBI1 232114Z 12006KT 23/17 A2994 RMK A01 T02260174  RH  072%=      5-min Rain = 0
KBI1 232115Z 12008KT 23/17 A2994 RMK A01 T02270174  RH  072%=      5-min Rain = 0
KBI1 232116Z 11009KT 23/17 A2994 RMK A01 T02250170  RH  071%=      5-min Rain = 0
KBI1 232117Z 10010KT 22/17 A2994 RMK A01 T02220168  RH  072%=      5-min Rain = 0
KBI1 232118Z 11008KT 22/17 A2994 RMK A01 T02200169  RH  073%=      5-min Rain = 0
KBI1 232119Z 14007KT 22/17 A2994 RMK A01 T02200170  RH  073%=      5-min Rain = 0
KBI1 232120Z 14008KT 22/17 A2994 RMK A01 T02200168  RH  072%=      5-min Rain = 0
KBI1 232121Z 13009KT 22/17 A2994 RMK A01 T02190168  RH  072%=      5-min Rain = 0
KBI1 232122Z 15008KT 22/17 A2994 RMK A01 T02180167  RH  072%=      5-min Rain = 0
KBI1 232123Z 14006KT 22/17 A2994 RMK A01 T02180169  RH  074%=      5-min Rain = 0
KBI1 232124Z 13006KT 22/17 A2993 RMK A01 T02180171  RH  075%=      5-min Rain = 0
KBI1 232125Z 13008KT 22/17 A2993 RMK A01 T02200171  RH  074%=      5-min Rain = 0
KBI1 232126Z 13008KT 22/17 A2993 RMK A01 T02220173  RH  074%=      5-min Rain = 0
KBI1 232127Z 13008KT 22/17 A2993 RMK A01 T02240174  RH  073%=      5-min Rain = 0
KBI1 232128Z 13006KT 23/17 A2993 RMK A01 T02250172  RH  072%=      5-min Rain = 0
KBI1 232129Z 12012KT 23/17 A2993 RMK A01 T02260172  RH  071%=      5-min Rain = 0
KBI1 232130Z 12011KT 23/17 A2993 RMK A01 T02260169  RH  070%=      5-min Rain = 0
KBI1 232131Z 12011G16KT 22/17 A2993 RMK A01 T02240170  RH  071%=      5-min Rain = 0
KBI1 232132Z 12010KT 22/17 A2993 RMK A01 T02230169  RH  071%=      5-min Rain = 0
KBI1 232133Z 12011KT 22/17 A2993 RMK A01 T02220168  RH  072%=      5-min Rain = 0
KBI1 232134Z 12009KT 22/17 A2993 RMK A01 T02200167  RH  072%=      5-min Rain = 0
KBI1 232135Z 12010KT 22/17 A2993 RMK A01 T02190169  RH  073%=      5-min Rain = 0
KBI1 232136Z 14010KT 22/17 A2993 RMK A01 T02190169  RH  073%=      5-min Rain = 0
KBI1 232137Z 14009KT 22/17 A2993 RMK A01 T02200169  RH  073%=      5-min Rain = 0
KBI1 232138Z 13007KT 22/17 A2993 RMK A01 T02210171  RH  073%=      5-min Rain = 0
KBI1 232139Z 12009G14KT 22/17 A2993 RMK A01 T02220172  RH  073%=      5-min Rain = 0
KBI1 232140Z 12012KT 22/17 A2993 RMK A01 T02220172  RH  073%=      5-min Rain = 0
KBI1 232141Z 12011KT 22/17 A2993 RMK A01 T02220171  RH  073%=      5-min Rain = 0
KBI1 232142Z 11009KT 22/17 A2993 RMK A01 T02210170  RH  073%=      5-min Rain = 0
KBI1 232143Z 12007KT 22/17 A2993 RMK A01 T02200171  RH  074%=      5-min Rain = 0
KBI1 232144Z 12009G14KT 22/17 A2993 RMK A01 T02200172  RH  074%=      5-min Rain = 0
KBI1 232145Z 11011KT 22/17 A2993 RMK A01 T02210169  RH  072%=      5-min Rain = 0
KBI1 232146Z 13010KT 22/17 A2993 RMK A01 T02210170  RH  073%=      5-min Rain = 0
KBI1 232147Z 12009KT 22/17 A2993 RMK A01 T02230174  RH  074%=      5-min Rain = 0
KBI1 232148Z 11012KT 23/17 A2993 RMK A01 T02250172  RH  072%=      5-min Rain = 0
KBI1 232149Z 11010KT 22/17 A2993 RMK A01 T02240171  RH  072%=      5-min Rain = 0
KBI1 232150Z 10010KT 22/17 A2993 RMK A01 T02220172  RH  073%=      5-min Rain = 0
KBI1 232151Z 12009KT 22/17 A2993 RMK A01 T02210171  RH  073%=      5-min Rain = 0
KBI1 232152Z 12010KT 22/17 A2993 RMK A01 T02210174  RH  074%=      5-min Rain = 0
KBI1 232153Z 13011KT 22/17 A2993 RMK A01 T02230173  RH  073%=      5-min Rain = 0
KBI1 232154Z 14010KT 22/17 A2993 RMK A01 T02230172  RH  073%=      5-min Rain = 0
KBI1 232155Z 12009KT 22/17 A2993 RMK A01 T02210173  RH  074%=      5-min Rain = 0
KBI1 232156Z 14009G14KT 22/17 A2993 RMK A01 T02200174  RH  075%=      5-min Rain = 0
KBI1 232157Z 13011KT 22/17 A2993 RMK A01 T02200171  RH  074%=      5-min Rain = 0
KBI1 232158Z 12013KT 22/17 A2993 RMK A01 T02180172  RH  075%=      5-min Rain = 0
KBI1 232159Z 12012KT 22/17 A2993 RMK A01 T02170170  RH  075%=      5-min Rain = 0
KBI1 232200Z 13010KT 22/17 A2993 RMK A01 T02150169  RH  075%=      5-min Rain = 0
KBI1 232201Z 13008KT 21/17 A2993 RMK A01 T02140171  RH  076%=      5-min Rain = 0
KBI1 232202Z 12010KT 21/17 A2993 RMK A01 T02140170  RH  076%=      5-min Rain = 0
KBI1 232203Z 12008KT 21/17 A2993 RMK A01 T02140171  RH  076%=      5-min Rain = 0
KBI1 232204Z 12009KT 21/17 A2993 RMK A01 T02130170  RH  076%=      5-min Rain = 0
KBI1 232205Z 12011KT 21/17 A2993 RMK A01 T02140171  RH  076%=      5-min Rain = 0
KBI1 232206Z 12011KT 22/17 A2993 RMK A01 T02160171  RH  076%=      5-min Rain = 0
KBI1 232207Z 12013G18KT 22/17 A2993 RMK A01 T02170171  RH  075%=      5-min Rain = 0
KBI1 232208Z 12012KT 22/17 A2993 RMK A01 T02190172  RH  075%=      5-min Rain = 0
KBI1 232209Z 12009G14KT 22/18 A2993 RMK A01 T02210175  RH  075%=      5-min Rain = 0
KBI1 232210Z 12011G16KT 22/17 A2993 RMK A01 T02230174  RH  074%=      5-min Rain = 0
KBI1 232211Z 13012KT 23/17 A2993 RMK A01 T02250170  RH  071%=      5-min Rain = 0
KBI1 232212Z 14009G15KT 23/17 A2993 RMK A01 T02250173  RH  072%=      5-min Rain = 0
KBI1 232213Z 14011G17KT 23/17 A2993 RMK A01 T02250173  RH  073%=      5-min Rain = 0
KBI1 232214Z 12011KT 22/17 A2993 RMK A01 T02240171  RH  072%=      5-min Rain = 0
KBI1 232215Z 12010KT 22/17 A2993 RMK A01 T02210171  RH  073%=      5-min Rain = 0
KBI1 232216Z 13009KT 22/17 A2993 RMK A01 T02200173  RH  074%=      5-min Rain = 0
KBI1 232217Z 12008KT 22/17 A2993 RMK A01 T02200172  RH  074%=      5-min Rain = 0
KBI1 232218Z 13009KT 22/17 A2993 RMK A01 T02210173  RH  074%=      5-min Rain = 0
KBI1 232219Z 14007KT 22/17 A2993 RMK A01 T02210173  RH  074%=      5-min Rain = 0
KBI1 232220Z 14009KT 22/17 A2993 RMK A01 T02210171  RH  074%=      5-min Rain = 0
KBI1 232221Z 14008KT 22/17 A2993 RMK A01 T02200173  RH  075%=      5-min Rain = 0
KBI1 232222Z 15011G16KT 22/17 A2993 RMK A01 T02200172  RH  074%=      5-min Rain = 0
KBI1 232223Z 15009KT 22/17 A2993 RMK A01 T02190171  RH  074%=      5-min Rain = 0
KBI1 232224Z 15010KT 22/17 A2993 RMK A01 T02180172  RH  075%=      5-min Rain = 0
KBI1 232225Z 14008KT 22/17 A2993 RMK A01 T02180172  RH  075%=      5-min Rain = 0
KBI1 232226Z 14008G14KT 22/17 A2993 RMK A01 T02180171  RH  075%=      5-min Rain = 0
KBI1 232227Z 13012KT 22/17 A2993 RMK A01 T02190171  RH  074%=      5-min Rain = 0
KBI1 232228Z 12012KT 22/17 A2993 RMK A01 T02200171  RH  074%=      5-min Rain = 0
KBI1 232229Z 12011KT 22/17 A2993 RMK A01 T02200171  RH  073%=      5-min Rain = 0
KBI1 232230Z 13008G14KT 22/17 A2993 RMK A01 T02210173  RH  074%=      5-min Rain = 0
KBI1 232231Z 14010KT 22/17 A2993 RMK A01 T02220170  RH  073%=      5-min Rain = 0
KBI1 232232Z 14011KT 22/17 A2993 RMK A01 T02210169  RH  072%=      5-min Rain = 0
KBI1 232233Z 14010KT 22/17 A2993 RMK A01 T02200168  RH  073%=      5-min Rain = 0
KBI1 232234Z 14009KT 22/17 A2993 RMK A01 T02200172  RH  074%=      5-min Rain = 0
KBI1 232235Z 14011KT 22/17 A2992 RMK A01 T02210172  RH  074%=      5-min Rain = 0
KBI1 232236Z 14008KT 22/17 A2992 RMK A01 T02210173  RH  074%=      5-min Rain = 0
KBI1 232237Z 16010KT 22/18 A2992 RMK A01 T02220175  RH  075%=      5-min Rain = 0
KBI1 232238Z 14007KT 22/17 A2992 RMK A01 T02240174  RH  073%=      5-min Rain = 0
KBI1 232239Z 13010KT 23/17 A2992 RMK A01 T02250174  RH  073%=      5-min Rain = 0
KBI1 232240Z 13009KT 23/17 A2992 RMK A01 T02260173  RH  072%=      5-min Rain = 0
KBI1 232241Z 13012KT 23/17 A2992 RMK A01 T02270173  RH  072%=      5-min Rain = 0
KBI1 232242Z 13009KT 23/17 A2992 RMK A01 T02250174  RH  072%=      5-min Rain = 0
KBI1 232243Z 13009G14KT 23/18 A2992 RMK A01 T02260178  RH  074%=      5-min Rain = 0
KBI1 232244Z 13014KT 23/18 A2992 RMK A01 T02280175  RH  072%=      5-min Rain = 0
KBI1 232245Z 13012KT 23/17 A2992 RMK A01 T02260174  RH  072%=      5-min Rain = 0
KBI1 232246Z 13012KT 22/17 A2992 RMK A01 T02230173  RH  073%=      5-min Rain = 0
KBI1 232247Z 14012KT 22/17 A2992 RMK A01 T02220172  RH  073%=      5-min Rain = 0
KBI1 232248Z 13010G15KT 22/17 A2992 RMK A01 T02200171  RH  074%=      5-min Rain = 0
KBI1 232249Z 13012KT 22/17 A2992 RMK A01 T02200172  RH  074%=      5-min Rain = 0
KBI1 232250Z 13010KT 22/17 A2992 RMK A01 T02200172  RH  074%=      5-min Rain = 0
KBI1 232251Z 14009KT 22/17 A2992 RMK A01 T02200171  RH  074%=      5-min Rain = 0
KBI1 232252Z 13012KT 22/17 A2992 RMK A01 T02200170  RH  073%=      5-min Rain = 0
KBI1 232253Z 13013KT 22/17 A2992 RMK A01 T02180169  RH  074%=      5-min Rain = 0
KBI1 232254Z 13012KT 22/17 A2992 RMK A01 T02160169  RH  074%=      5-min Rain = 0
KBI1 232255Z 13010KT 22/17 A2992 RMK A01 T02150169  RH  075%=      5-min Rain = 0
KBI1 232256Z 13010KT 22/17 A2992 RMK A01 T02150169  RH  075%=      5-min Rain = 0
KBI1 232257Z 13012KT 22/17 A2992 RMK A01 T02160170  RH  075%=      5-min Rain = 0
KBI1 232258Z 13013KT 22/17 A2992 RMK A01 T02150168  RH  075%=      5-min Rain = 0
KBI1 232259Z 13011KT 22/17 A2991 RMK A01 T02150169  RH  075%=      5-min Rain = 0
KBI1 232300Z 12010KT 22/17 A2991 RMK A01 T02150170  RH  075%=      5-min Rain = 0
KBI1 232301Z 12012KT 22/17 A2991 RMK A01 T02170171  RH  075%=      5-min Rain = 0
KBI1 232302Z 12012KT 22/17 A2991 RMK A01 T02170171  RH  075%=      5-min Rain = 0
KBI1 232303Z 14013KT 22/17 A2991 RMK A01 T02170171  RH  075%=      5-min Rain = 0
KBI1 232304Z 13010KT 22/17 A2991 RMK A01 T02160170  RH  075%=      5-min Rain = 0
KBI1 232305Z 15011KT 22/17 A2991 RMK A01 T02160172  RH  076%=      5-min Rain = 0
KBI1 232306Z 14008KT 22/17 A2991 RMK A01 T02160173  RH  076%=      5-min Rain = 0
KBI1 232307Z 14008KT 22/17 A2991 RMK A01 T02170174  RH  076%=      5-min Rain = 0
KBI1 232308Z 14011KT 22/17 A2991 RMK A01 T02180173  RH  076%=      5-min Rain = 0
KBI1 232309Z 13008KT 22/17 A2991 RMK A01 T02170173  RH  076%=      5-min Rain = 0
KBI1 232310Z 14008KT 22/17 A2991 RMK A01 T02170174  RH  076%=      5-min Rain = 0
KBI1 232311Z 15009KT 22/18 A299 RMK A01 T02190175  RH  076%=      5-min Rain = 0
KBI1 232312Z 14010KT 22/18 A299 RMK A01 T02200175  RH  076%=      5-min Rain = 0
KBI1 232313Z 13008KT 22/17 A299 RMK A01 T02200173  RH  075%=      5-min Rain = 0
KBI1 232314Z 13011KT 22/17 A299 RMK A01 T02190173  RH  075%=      5-min Rain = 0
KBI1 232315Z 13008KT 22/17 A299 RMK A01 T02190172  RH  075%=      5-min Rain = 0
KBI1 232316Z 13010KT 22/17 A299 RMK A01 T02190173  RH  075%=      5-min Rain = 0
KBI1 232317Z 15007G12KT 22/17 A299 RMK A01 T02190173  RH  075%=      5-min Rain = 0
KBI1 232318Z 14010KT 22/17 A299 RMK A01 T02190172  RH  075%=      5-min Rain = 0
KBI1 232319Z 14013KT 22/17 A299 RMK A01 T02180170  RH  074%=      5-min Rain = 0
KBI1 232320Z 14011KT 22/17 A299 RMK A01 T02180169  RH  074%=      5-min Rain = 0
KBI1 232321Z 14008G13KT 22/17 A299 RMK A01 T02170170  RH  074%=      5-min Rain = 0
KBI1 232322Z 13008KT 22/17 A299 RMK A01 T02170171  RH  075%=      5-min Rain = 0
KBI1 232323Z 13009KT 22/17 A299 RMK A01 T02180172  RH  075%=      5-min Rain = 0
KBI1 232324Z 13011KT 22/17 A299 RMK A01 T02180171  RH  074%=      5-min Rain = 0
KBI1 232325Z 13011KT 22/17 A299 RMK A01 T02180171  RH  075%=      5-min Rain = 0
KBI1 232326Z 13009KT 22/17 A299 RMK A01 T02160170  RH  075%=      5-min Rain = 0
KBI1 232327Z 13006KT 22/17 A299 RMK A01 T02150172  RH  077%=      5-min Rain = 0
KBI1 232328Z 13008KT 22/17 A299 RMK A01 T02150172  RH  077%=      5-min Rain = 0
KBI1 232329Z 14008KT 22/17 A299 RMK A01 T02150171  RH  076%=      5-min Rain = 0
KBI1 232330Z 14009G14KT 21/17 A299 RMK A01 T02140173  RH  077%=      5-min Rain = 0
KBI1 232331Z 14008KT 21/17 A299 RMK A01 T02140173  RH  077%=      5-min Rain = 0
KBI1 232332Z 11007KT 21/17 A2991 RMK A01 T02130174  RH  078%=      5-min Rain = 0
KBI1 232333Z 11009KT 21/17 A2991 RMK A01 T02130174  RH  079%=      5-min Rain = 0
KBI1 232334Z 11009KT 21/17 A2991 RMK A01 T02120174  RH  079%=      5-min Rain = 0
KBI1 232335Z 12011KT 21/17 A2991 RMK A01 T02100173  RH  079%=      5-min Rain = 0
KBI1 232336Z 11010KT 21/17 A2991 RMK A01 T02090173  RH  080%=      5-min Rain = 0
KBI1 232337Z 11008KT 21/17 A2991 RMK A01 T02080173  RH  080%=      5-min Rain = 0
KBI1 232338Z 11006G11KT 21/17 A2991 RMK A01 T02080174  RH  081%=      5-min Rain = 0
KBI1 232339Z 11008KT 21/18 A2991 RMK A01 T02080175  RH  081%=      5-min Rain = 0
KBI1 232340Z 10008KT 21/17 A2991 RMK A01 T02080174  RH  081%=      5-min Rain = 0
KBI1 232341Z 11008KT 21/17 A2991 RMK A01 T02080174  RH  081%=      5-min Rain = 0
KBI1 232342Z 10006KT 21/18 A2991 RMK A01 T02080175  RH  081%=      5-min Rain = 0
KBI1 232343Z 12007KT 21/18 A2991 RMK A01 T02080175  RH  081%=      5-min Rain = 0
KBI1 232344Z 12010KT 21/18 A2991 RMK A01 T02080175  RH  081%=      5-min Rain = 0
KBI1 232345Z 12008KT 21/17 A2991 RMK A01 T02080174  RH  081%=      5-min Rain = 0
KBI1 232346Z 12008KT 21/18 A2991 RMK A01 T02080175  RH  081%=      5-min Rain = 0
KBI1 232347Z 13008KT 21/17 A2991 RMK A01 T02080174  RH  081%=      5-min Rain = 0
KBI1 232348Z 14010KT 21/17 A2991 RMK A01 T02080172  RH  080%=      5-min Rain = 0
KBI1 232349Z 14007KT 21/17 A2991 RMK A01 T02080172  RH  079%=      5-min Rain = 0
KBI1 232350Z 13011KT 21/17 A2991 RMK A01 T02090171  RH  079%=      5-min Rain = 0
KBI1 232351Z 13009KT 21/17 A2991 RMK A01 T02090170  RH  079%=      5-min Rain = 0
KBI1 232352Z 15008G13KT 21/17 A2991 RMK A01 T02090171  RH  079%=      5-min Rain = 0
KBI1 232353Z 13010KT 21/17 A2991 RMK A01 T02100171  RH  079%=      5-min Rain = 0
KBI1 232354Z 13012KT 21/17 A2991 RMK A01 T02100171  RH  079%=      5-min Rain = 0
KBI1 232355Z 15009KT 21/17 A2991 RMK A01 T02090171  RH  079%=      5-min Rain = 0
KBI1 232356Z 15010KT 21/17 A2991 RMK A01 T02090171  RH  079%=      5-min Rain = 0
KBI1 232357Z 14009KT 21/17 A2991 RMK A01 T02080171  RH  079%=      5-min Rain = 0
KBI1 232358Z 15006KT 21/17 A2991 RMK A01 T02080172  RH  079%=      5-min Rain = 0
KBI1 232359Z 14006KT 21/17 A2991 RMK A01 T02080172  RH  080%=      5-min Rain = 0
KBI1 240000Z 13008KT 21/17 A2991 RMK A01 T02080172  RH  080%=      5-min Rain = 0
KBI1 240001Z 12010KT 21/17 A2991 RMK A01 T02080172  RH  080%=      5-min Rain = 0
KBI1 240002Z 13010KT 21/17 A2991 RMK A01 T02080172  RH  080%=      5-min Rain = 0
KBI1 240003Z 13011KT 21/17 A2991 RMK A01 T02080172  RH  080%=      5-min Rain = 0
KBI1 240004Z 13010KT 21/17 A2991 RMK A01 T02070172  RH  080%=      5-min Rain = 0
KBI1 240005Z 13009KT 21/17 A2991 RMK A01 T02070172  RH  080%=      5-min Rain = 0
KBI1 240006Z 14010KT 21/17 A2991 RMK A01 T02070172  RH  080%=      5-min Rain = 0
KBI1 240007Z 13008KT 21/17 A2991 RMK A01 T02060172  RH  081%=      5-min Rain = 0
KBI1 240008Z 13011KT 21/17 A2991 RMK A01 T02060172  RH  081%=      5-min Rain = 0
KBI1 240009Z 12011KT 21/17 A2991 RMK A01 T02060172  RH  081%=      5-min Rain = 0
KBI1 240010Z 12009KT 21/17 A2991 RMK A01 T02060172  RH  081%=      5-min Rain = 0
KBI1 240011Z 12010KT 21/17 A2991 RMK A01 T02060172  RH  081%=      5-min Rain = 0
KBI1 240012Z 13010KT 21/17 A2991 RMK A01 T02060172  RH  081%=      5-min Rain = 0
KBI1 240013Z 11009KT 21/17 A2991 RMK A01 T02060172  RH  081%=      5-min Rain = 0
KBI1 240014Z 11010KT 21/17 A2991 RMK A01 T02050172  RH  081%=      5-min Rain = 0
KBI1 240015Z 12010KT 21/17 A299 RMK A01 T02050172  RH  081%=      5-min Rain = 0
KBI1 240016Z 12011KT 21/17 A299 RMK A01 T02050172  RH  081%=      5-min Rain = 0
KBI1 240017Z 12010KT 20/17 A299 RMK A01 T02040172  RH  082%=      5-min Rain = 0
KBI1 240018Z 12010KT 20/17 A299 RMK A01 T02040172  RH  082%=      5-min Rain = 0
KBI1 240019Z 12008KT 20/17 A2991 RMK A01 T02040172  RH  082%=      5-min Rain = 0
KBI1 240020Z 11008KT 20/17 A2991 RMK A01 T02040173  RH  082%=      5-min Rain = 0
KBI1 240021Z 12010KT 20/17 A2991 RMK A01 T02040172  RH  082%=      5-min Rain = 0
KBI1 240022Z 12009KT 20/17 A2991 RMK A01 T02040172  RH  082%=      5-min Rain = 0
KBI1 240023Z 12013KT 20/17 A2991 RMK A01 T02040172  RH  082%=      5-min Rain = 0
KBI1 240024Z 12008G14KT 20/17 A2991 RMK A01 T02030171  RH  082%=      5-min Rain = 0
KBI1 240025Z 11010KT 20/17 A2991 RMK A01 T02030172  RH  082%=      5-min Rain = 0
KBI1 240026Z 13007KT 20/17 A2991 RMK A01 T02030172  RH  082%=      5-min Rain = 0
KBI1 240027Z 13009KT 20/17 A2991 RMK A01 T02030172  RH  082%=      5-min Rain = 0
KBI1 240028Z 13012KT 20/17 A2991 RMK A01 T02030172  RH  083%=      5-min Rain = 0
KBI1 240029Z 13008KT 20/17 A2991 RMK A01 T02020172  RH  083%=      5-min Rain = 0
KBI1 240030Z 13007KT 20/17 A2991 RMK A01 T02020173  RH  084%=      5-min Rain = 0
KBI1 240031Z 13008KT 20/17 A2991 RMK A01 T02010173  RH  084%=      5-min Rain = 0
KBI1 240032Z 14007KT 20/17 A2991 RMK A01 T02010173  RH  084%=      5-min Rain = 0
KBI1 240033Z 13008KT 20/17 A2991 RMK A01 T02010173  RH  084%=      5-min Rain = 0
KBI1 240034Z 13008KT 20/17 A2991 RMK A01 T02010173  RH  084%=      5-min Rain = 0
KBI1 240035Z 13007KT 20/17 A2991 RMK A01 T02010173  RH  084%=      5-min Rain = 0
KBI1 240036Z 12010KT 20/17 A2991 RMK A01 T02010173  RH  084%=      5-min Rain = 0
KBI1 240037Z 12007KT 20/17 A2991 RMK A01 T02000172  RH  084%=      5-min Rain = 0
KBI1 240038Z 13008KT 20/17 A2991 RMK A01 T02000173  RH  084%=      5-min Rain = 0
KBI1 240039Z 12009KT 20/17 A2991 RMK A01 T02000172  RH  084%=      5-min Rain = 0
KBI1 240040Z 14008KT 20/17 A2991 RMK A01 T01990172  RH  084%=      5-min Rain = 0
KBI1 240041Z 13007KT 20/17 A2991 RMK A01 T01990172  RH  084%=      5-min Rain = 0
KBI1 240042Z 13007KT 20/17 A2991 RMK A01 T01990173  RH  085%=      5-min Rain = 0
KBI1 240043Z 13008KT 20/17 A2991 RMK A01 T01990173  RH  085%=      5-min Rain = 0
KBI1 240044Z 14005KT 20/17 A2991 RMK A01 T01990173  RH  085%=      5-min Rain = 0
KBI1 240045Z 14005KT 20/17 A2991 RMK A01 T01990173  RH  085%=      5-min Rain = 0
KBI1 240046Z 14006KT 20/17 A2992 RMK A01 T01990174  RH  085%=      5-min Rain = 0
KBI1 240047Z 14007KT 20/17 A2992 RMK A01 T01980173  RH  086%=      5-min Rain = 0
KBI1 240048Z 14007KT 20/17 A2992 RMK A01 T01980174  RH  086%=      5-min Rain = 0
KBI1 240049Z 15007KT 20/17 A2992 RMK A01 T01980174  RH  086%=      5-min Rain = 0
KBI1 240050Z 14006KT 20/17 A2992 RMK A01 T01980173  RH  086%=      5-min Rain = 0
KBI1 240051Z 14006KT 20/17 A2992 RMK A01 T01980173  RH  086%=      5-min Rain = 0
KBI1 240052Z 14006G11KT 20/17 A2992 RMK A01 T01980173  RH  086%=      5-min Rain = 0
KBI1 240053Z 14007KT 20/17 A2992 RMK A01 T01980174  RH  086%=      5-min Rain = 0
KBI1 240054Z 14008KT 20/17 A2992 RMK A01 T01970173  RH  086%=      5-min Rain = 0
KBI1 240055Z 15007KT 20/17 A2992 RMK A01 T01980173  RH  086%=      5-min Rain = 0
KBI1 240056Z 14007KT 20/17 A2992 RMK A01 T01970173  RH  086%=      5-min Rain = 0
KBI1 240057Z 15009KT 20/17 A2992 RMK A01 T01970173  RH  086%=      5-min Rain = 0
KBI1 240058Z 15009KT 20/17 A2992 RMK A01 T01970172  RH  086%=      5-min Rain = 0
KBI1 240059Z 15008KT 20/17 A2992 RMK A01 T01970173  RH  085%=      5-min Rain = 0
KBI1 240100Z 14009KT 20/17 A2991 RMK A01 T01970172  RH  085%=      5-min Rain = 0
KBI1 240101Z 14007KT 20/17 A2991 RMK A01 T01970172  RH  086%=      5-min Rain = 0
KBI1 240102Z 14005KT 20/17 A2991 RMK A01 T01970173  RH  086%=      5-min Rain = 0
KBI1 240103Z 14008KT 20/17 A2991 RMK A01 T01970173  RH  086%=      5-min Rain = 0
KBI1 240104Z 14007KT 20/17 A2991 RMK A01 T01970173  RH  086%=      5-min Rain = 0
KBI1 240105Z 14007KT 20/17 A2992 RMK A01 T01970173  RH  086%=      5-min Rain = 0
KBI1 240106Z 14006KT 20/17 A2992 RMK A01 T01970173  RH  086%=      5-min Rain = 0
KBI1 240107Z 14006KT 20/17 A2992 RMK A01 T01970174  RH  086%=      5-min Rain = 0
KBI1 240108Z 13008KT 20/17 A2992 RMK A01 T01970174  RH  086%=      5-min Rain = 0
KBI1 240109Z 14008KT 20/17 A2992 RMK A01 T01970174  RH  086%=      5-min Rain = 0
KBI1 240110Z 13009KT 20/17 A2992 RMK A01 T01970173  RH  086%=      5-min Rain = 0
KBI1 240111Z 14006KT 20/17 A2992 RMK A01 T01970173  RH  086%=      5-min Rain = 0
KBI1 240112Z 13007KT 20/17 A2992 RMK A01 T01970173  RH  086%=      5-min Rain = 0
KBI1 240113Z 14006KT 20/17 A2992 RMK A01 T01970174  RH  086%=      5-min Rain = 0
KBI1 240114Z 13006KT 20/17 A2992 RMK A01 T01970173  RH  086%=      5-min Rain = 0
KBI1 240115Z 14008KT 20/17 A2992 RMK A01 T01970174  RH  086%=      5-min Rain = 0
KBI1 240116Z 13008KT 20/17 A2992 RMK A01 T01970173  RH  086%=      5-min Rain = 0
KBI1 240117Z 14007KT 20/17 A2992 RMK A01 T01970174  RH  086%=      5-min Rain = 0
KBI1 240118Z 14007KT 20/17 A2992 RMK A01 T01970174  RH  087%=      5-min Rain = 0
KBI1 240119Z 14006KT 20/17 A2992 RMK A01 T01960174  RH  087%=      5-min Rain = 0
KBI1 240120Z 14009KT 20/17 A2992 RMK A01 T01960174  RH  087%=      5-min Rain = 0
KBI1 240121Z 14006KT 20/17 A2992 RMK A01 T01960173  RH  087%=      5-min Rain = 0
KBI1 240122Z 13006KT 20/17 A2991 RMK A01 T01960174  RH  087%=      5-min Rain = 0
KBI1 240123Z 15007KT 20/17 A2991 RMK A01 T01960174  RH  087%=      5-min Rain = 0
KBI1 240124Z 14009KT 20/17 A2991 RMK A01 T01960174  RH  087%=      5-min Rain = 0
KBI1 240125Z 13009KT 20/17 A2991 RMK A01 T01950173  RH  087%=      5-min Rain = 0
KBI1 240126Z 14007KT 20/17 A299 RMK A01 T01960173  RH  087%=      5-min Rain = 0
KBI1 240127Z 13010KT 20/17 A299 RMK A01 T01960173  RH  087%=      5-min Rain = 0
KBI1 240128Z 14009KT 20/17 A299 RMK A01 T01950173  RH  087%=      5-min Rain = 0
KBI1 240129Z 13009G14KT 20/17 A299 RMK A01 T01950173  RH  087%=      5-min Rain = 0
KBI1 240130Z 13009KT 20/17 A299 RMK A01 T01950172  RH  087%=      5-min Rain = 0
KBI1 240131Z 13010KT 20/17 A299 RMK A01 T01950172  RH  087%=      5-min Rain = 0
KBI1 240132Z 13008KT 20/17 A299 RMK A01 T01950172  RH  087%=      5-min Rain = 0
KBI1 240133Z 13008KT 20/17 A299 RMK A01 T01950173  RH  087%=      5-min Rain = 0
KBI1 240134Z 14010KT 19/17 A299 RMK A01 T01940172  RH  087%=      5-min Rain = 0
KBI1 240135Z 13010KT 19/17 A299 RMK A01 T01940172  RH  087%=      5-min Rain = 0
KBI1 240136Z 14009KT 19/17 A299 RMK A01 T01940172  RH  087%=      5-min Rain = 0
KBI1 240137Z 13009KT 19/17 A299 RMK A01 T01940172  RH  087%=      5-min Rain = 0
KBI1 240138Z 13007KT 19/17 A2991 RMK A01 T01940173  RH  088%=      5-min Rain = 0
KBI1 240139Z 14007KT 19/17 A2991 RMK A01 T01930172  RH  088%=      5-min Rain = 0
KBI1 240140Z 14007KT 19/17 A2991 RMK A01 T01930172  RH  088%=      5-min Rain = 0
KBI1 240141Z 14007G12KT 19/17 A2991 RMK A01 T01930173  RH  088%=      5-min Rain = 0
KBI1 240142Z 14008KT 19/17 A2991 RMK A01 T01930172  RH  088%=      5-min Rain = 0
KBI1 240143Z 15006KT 19/17 A2991 RMK A01 T01930172  RH  088%=      5-min Rain = 0
KBI1 240144Z 14007KT 19/17 A2991 RMK A01 T01930172  RH  088%=      5-min Rain = 0
KBI1 240145Z 14006KT 19/17 A2991 RMK A01 T01930172  RH  088%=      5-min Rain = 0
KBI1 240146Z 14007KT 19/17 A2992 RMK A01 T01930172  RH  088%=      5-min Rain = 0
KBI1 240147Z 14008KT 19/17 A2992 RMK A01 T01920172  RH  088%=      5-min Rain = 0
KBI1 240148Z 15008KT 19/17 A2992 RMK A01 T01920172  RH  088%=      5-min Rain = 0
KBI1 240149Z 14007KT 19/17 A2992 RMK A01 T01920172  RH  088%=      5-min Rain = 0
KBI1 240150Z 15006KT 19/17 A2992 RMK A01 T01920172  RH  088%=      5-min Rain = 0
KBI1 240151Z 15007KT 19/17 A2992 RMK A01 T01920172  RH  088%=      5-min Rain = 0
KBI1 240152Z 15006KT 19/17 A2992 RMK A01 T01920172  RH  088%=      5-min Rain = 0
KBI1 240153Z 14007KT 19/17 A2992 RMK A01 T01920172  RH  088%=      5-min Rain = 0
KBI1 240154Z 14008KT 19/17 A2992 RMK A01 T01920172  RH  088%=      5-min Rain = 0
KBI1 240155Z 13006KT 19/17 A2992 RMK A01 T01920172  RH  088%=      5-min Rain = 0
KBI1 240156Z 14008KT 19/17 A2991 RMK A01 T01920172  RH  088%=      5-min Rain = 0
KBI1 240157Z 14009KT 19/17 A2991 RMK A01 T01920172  RH  088%=      5-min Rain = 0
KBI1 240158Z 14007KT 19/17 A2991 RMK A01 T01920172  RH  088%=      5-min Rain = 0
KBI1 240159Z 14008KT 19/17 A2991 RMK A01 T01920171  RH  088%=      5-min Rain = 0
KBI1 240200Z 15007KT 19/17 A2991 RMK A01 T01920171  RH  088%=      5-min Rain = 0
KBI1 240201Z 14008KT 19/17 A2992 RMK A01 T01920171  RH  088%=      5-min Rain = 0
KBI1 240202Z 14006KT 19/17 A2992 RMK A01 T01920171  RH  088%=      5-min Rain = 0
KBI1 240203Z 15005KT 19/17 A2992 RMK A01 T01920172  RH  088%=      5-min Rain = 0
KBI1 240204Z 15005KT 19/17 A2992 RMK A01 T01920172  RH  088%=      5-min Rain = 0
KBI1 240205Z 15006KT 19/17 A2992 RMK A01 T01920172  RH  088%=      5-min Rain = 0
KBI1 240206Z 15007KT 19/17 A2993 RMK A01 T01920172  RH  088%=      5-min Rain = 0
KBI1 240207Z 15006KT 19/17 A2993 RMK A01 T01920172  RH  088%=      5-min Rain = 0
KBI1 240208Z 15006KT 19/17 A2993 RMK A01 T01920172  RH  088%=      5-min Rain = 0
KBI1 240209Z 16006KT 19/17 A2993 RMK A01 T01920172  RH  088%=      5-min Rain = 0
KBI1 240210Z 15006KT 19/17 A2993 RMK A01 T01910172  RH  088%=      5-min Rain = 0
KBI1 240211Z 16006KT 19/17 A2993 RMK A01 T01910171  RH  088%=      5-min Rain = 0
KBI1 240212Z 15008KT 19/17 A2993 RMK A01 T01910172  RH  088%=      5-min Rain = 0
KBI1 240213Z 16006KT 19/17 A2993 RMK A01 T01910172  RH  088%=      5-min Rain = 0
KBI1 240214Z 15007KT 19/17 A2993 RMK A01 T01910172  RH  088%=      5-min Rain = 0
KBI1 240215Z 16004KT 19/17 A2993 RMK A01 T01910172  RH  089%=      5-min Rain = 0
KBI1 240216Z 15005KT 19/17 A2993 RMK A01 T01910172  RH  089%=      5-min Rain = 0
KBI1 240217Z 16006KT 19/17 A2993 RMK A01 T01910172  RH  089%=      5-min Rain = 0
KBI1 240218Z 16006KT 19/17 A2993 RMK A01 T01910172  RH  089%=      5-min Rain = 0
KBI1 240219Z 16007KT 19/17 A2993 RMK A01 T01910172  RH  089%=      5-min Rain = 0
KBI1 240220Z 16007KT 19/17 A2994 RMK A01 T01900172  RH  089%=      5-min Rain = 0
KBI1 240221Z 16007KT 19/17 A2994 RMK A01 T01910172  RH  089%=      5-min Rain = 0
KBI1 240222Z 15007KT 19/17 A2994 RMK A01 T01910172  RH  089%=      5-min Rain = 0
KBI1 240223Z 16007KT 19/17 A2993 RMK A01 T01910172  RH  089%=      5-min Rain = 0
KBI1 240224Z 16006KT 19/17 A2993 RMK A01 T01900172  RH  089%=      5-min Rain = 0
KBI1 240225Z 16006KT 19/17 A2993 RMK A01 T01900172  RH  089%=      5-min Rain = 0
KBI1 240226Z 16008KT 19/17 A2993 RMK A01 T01900171  RH  089%=      5-min Rain = 0
KBI1 240227Z 16007KT 19/17 A2993 RMK A01 T01900171  RH  089%=      5-min Rain = 0
KBI1 240228Z 16006KT 19/17 A2993 RMK A01 T01910171  RH  089%=      5-min Rain = 0
KBI1 240229Z 15007KT 19/17 A2993 RMK A01 T01900171  RH  089%=      5-min Rain = 0
KBI1 240230Z 14007KT 19/17 A2993 RMK A01 T01900171  RH  089%=      5-min Rain = 0
KBI1 240231Z 14007KT 19/17 A2993 RMK A01 T01910171  RH  088%=      5-min Rain = 0
KBI1 240232Z 15006KT 19/17 A2993 RMK A01 T01900171  RH  088%=      5-min Rain = 0
KBI1 240233Z 14006KT 19/17 A2993 RMK A01 T01910171  RH  088%=      5-min Rain = 0
KBI1 240234Z 15005KT 19/17 A2993 RMK A01 T01900171  RH  088%=      5-min Rain = 0
KBI1 240235Z 15006KT 19/17 A2992 RMK A01 T01900171  RH  088%=      5-min Rain = 0
KBI1 240236Z 15005KT 19/17 A2992 RMK A01 T01900171  RH  089%=      5-min Rain = 0
KBI1 240237Z 14007KT 19/17 A2992 RMK A01 T01900171  RH  089%=      5-min Rain = 0
KBI1 240238Z 15006KT 19/17 A2992 RMK A01 T01900171  RH  089%=      5-min Rain = 0
KBI1 240239Z 14008KT 19/17 A2991 RMK A01 T01900171  RH  089%=      5-min Rain = 0
KBI1 240240Z 14008KT 19/17 A2991 RMK A01 T01900171  RH  089%=      5-min Rain = 0
KBI1 240241Z 14006KT 19/17 A2991 RMK A01 T01900171  RH  089%=      5-min Rain = 0
KBI1 240242Z 14007KT 19/17 A2992 RMK A01 T01900171  RH  089%=      5-min Rain = 0
KBI1 240243Z 15007KT 19/17 A2992 RMK A01 T01900172  RH  089%=      5-min Rain = 0
KBI1 240244Z 15006KT 19/17 A2992 RMK A01 T01890171  RH  089%=      5-min Rain = 0
KBI1 240245Z 16007KT 19/17 A2992 RMK A01 T01890172  RH  089%=      5-min Rain = 0
KBI1 240246Z 15006KT 19/17 A2992 RMK A01 T01890172  RH  089%=      5-min Rain = 0
KBI1 240247Z 15007KT 19/17 A2992 RMK A01 T01890172  RH  090%=      5-min Rain = 0
KBI1 240248Z 14006KT 19/17 A2992 RMK A01 T01890171  RH  090%=      5-min Rain = 0
KBI1 240249Z 15005KT 19/17 A2991 RMK A01 T01890172  RH  090%=      5-min Rain = 0
KBI1 240250Z 14006KT 19/17 A2991 RMK A01 T01890171  RH  090%=      5-min Rain = 0
KBI1 240251Z 14006KT 19/17 A2991 RMK A01 T01880171  RH  090%=      5-min Rain = 0
KBI1 240252Z 15005KT 19/17 A2991 RMK A01 T01890172  RH  090%=      5-min Rain = 0
KBI1 240253Z 15005KT 19/17 A2991 RMK A01 T01880171  RH  090%=      5-min Rain = 0
KBI1 240254Z 14005KT 19/17 A2991 RMK A01 T01880171  RH  090%=      5-min Rain = 0
KBI1 240255Z 14005KT 19/17 A2991 RMK A01 T01880171  RH  090%=      5-min Rain = 0
KBI1 240256Z 13006KT 19/17 A2991 RMK A01 T01870171  RH  090%=      5-min Rain = 0
KBI1 240257Z 13007KT 19/17 A2991 RMK A01 T01870171  RH  090%=      5-min Rain = 0
KBI1 240258Z 13006KT 19/17 A2991 RMK A01 T01870171  RH  090%=      5-min Rain = 0
KBI1 240259Z 13007KT 19/17 A2991 RMK A01 T01870171  RH  090%=      5-min Rain = 0
KBI1 240300Z 13006KT 19/17 A2991 RMK A01 T01870171  RH  090%=      5-min Rain = 0
KBI1 240301Z 13007KT 19/17 A2991 RMK A01 T01870171  RH  090%=      5-min Rain = 0
KBI1 240302Z 13007KT 19/17 A2991 RMK A01 T01860171  RH  090%=      5-min Rain = 0
KBI1 240303Z 13007KT 19/17 A2991 RMK A01 T01870171  RH  090%=      5-min Rain = 0
KBI1 240304Z 13007KT 19/17 A2991 RMK A01 T01860171  RH  090%=      5-min Rain = 0
KBI1 240305Z 14006KT 19/17 A2992 RMK A01 T01860171  RH  091%=      5-min Rain = 0
KBI1 240306Z 13007KT 19/17 A2992 RMK A01 T01860171  RH  091%=      5-min Rain = 0
KBI1 240307Z 13006KT 19/17 A2992 RMK A01 T01860171  RH  091%=      5-min Rain = 0
KBI1 240308Z 14006KT 19/17 A2993 RMK A01 T01860171  RH  091%=      5-min Rain = 0
KBI1 240309Z 13005KT 19/17 A2993 RMK A01 T01860170  RH  091%=      5-min Rain = 0
KBI1 240310Z 15005KT 19/17 A2993 RMK A01 T01860170  RH  091%=      5-min Rain = 0
KBI1 240311Z 15003KT 19/17 A2993 RMK A01 T01860171  RH  091%=      5-min Rain = 0
KBI1 240312Z 15002KT 19/17 A2994 RMK A01 T01850170  RH  091%=      5-min Rain = 0
KBI1 240313Z 15003KT 19/17 A2994 RMK A01 T01850170  RH  091%=      5-min Rain = 0
KBI1 240314Z 16004KT 19/17 A2994 RMK A01 T01850170  RH  091%=      5-min Rain = 0
KBI1 240315Z 14004KT 19/17 A2994 RMK A01 T01850170  RH  091%=      5-min Rain = 0
KBI1 240316Z 14002KT 18/17 A2994 RMK A01 T01840170  RH  091%=      5-min Rain = 0
KBI1 240317Z 15004KT 19/17 A2994 RMK A01 T01850170  RH  091%=      5-min Rain = 0
KBI1 240318Z 15004KT 19/17 A2994 RMK A01 T01850170  RH  091%=      5-min Rain = 0
KBI1 240319Z 15003KT 18/17 A2994 RMK A01 T01840170  RH  091%=      5-min Rain = 0
KBI1 240320Z 15003KT 18/17 A2994 RMK A01 T01840169  RH  091%=      5-min Rain = 0
KBI1 240321Z 15003KT 18/17 A2994 RMK A01 T01840170  RH  091%=      5-min Rain = 0
KBI1 240322Z 15003KT 19/17 A2994 RMK A01 T01850170  RH  091%=      5-min Rain = 0
KBI1 240323Z 15003KT 19/17 A2995 RMK A01 T01850170  RH  091%=      5-min Rain = 0
KBI1 240324Z 13003KT 18/17 A2995 RMK A01 T01840170  RH  091%=      5-min Rain = 0
KBI1 240325Z 14003KT 18/17 A2995 RMK A01 T01840170  RH  091%=      5-min Rain = 0
KBI1 240326Z 12002KT 18/17 A2995 RMK A01 T01840170  RH  091%=      5-min Rain = 0
KBI1 240327Z 11002KT 18/17 A2995 RMK A01 T01840169  RH  091%=      5-min Rain = 0
KBI1 240328Z 11002KT 18/17 A2994 RMK A01 T01840169  RH  091%=      5-min Rain = 0
KBI1 240329Z 10002KT 18/17 A2994 RMK A01 T01840169  RH  091%=      5-min Rain = 0
KBI1 240330Z 09002KT 18/17 A2994 RMK A01 T01840169  RH  091%=      5-min Rain = 0
KBI1 240331Z 07003KT 19/17 A2994 RMK A01 T01850169  RH  091%=      5-min Rain = 0
KBI1 240332Z 08003KT 19/17 A2994 RMK A01 T01850170  RH  091%=      5-min Rain = 0
KBI1 240333Z 08003KT 19/17 A2994 RMK A01 T01850170  RH  091%=      5-min Rain = 0
KBI1 240334Z 06002KT 19/17 A2994 RMK A01 T01850170  RH  091%=      5-min Rain = 0
KBI1 240335Z 05002KT 19/17 A2994 RMK A01 T01850170  RH  091%=      5-min Rain = 0
KBI1 240336Z 05002KT 19/17 A2995 RMK A01 T01850170  RH  091%=      5-min Rain = 0
KBI1 240337Z 04002KT 19/17 A2995 RMK A01 T01850170  RH  091%=      5-min Rain = 0
KBI1 240338Z 03003KT 19/17 A2995 RMK A01 T01860170  RH  091%=      5-min Rain = 0
KBI1 240339Z 04004KT 19/17 A2995 RMK A01 T01860170  RH  091%=      5-min Rain = 0
KBI1 240340Z 04003KT 19/17 A2994 RMK A01 T01860170  RH  091%=      5-min Rain = 0
KBI1 240341Z 03004KT 19/17 A2994 RMK A01 T01860170  RH  091%=      5-min Rain = 0
KBI1 240342Z 03004KT 19/17 A2994 RMK A01 T01860170  RH  091%=      5-min Rain = 0
KBI1 240343Z 04004KT 19/17 A2994 RMK A01 T01860171  RH  091%=      5-min Rain = 0
KBI1 240344Z 04003KT 19/17 A2994 RMK A01 T01860171  RH  091%=      5-min Rain = 0
KBI1 240345Z 04004KT 19/17 A2994 RMK A01 T01860171  RH  091%=      5-min Rain = 0
KBI1 240346Z 03004KT 19/17 A2994 RMK A01 T01860171  RH  091%=      5-min Rain = 0
KBI1 240347Z 03004KT 19/17 A2994 RMK A01 T01860171  RH  091%=      5-min Rain = 0
KBI1 240348Z 02004KT 19/17 A2995 RMK A01 T01860171  RH  091%=      5-min Rain = 0
KBI1 240349Z 02004KT 19/17 A2995 RMK A01 T01860171  RH  091%=      5-min Rain = 0
KBI1 240350Z 03004KT 19/17 A2995 RMK A01 T01870171  RH  091%=      5-min Rain = 0
KBI1 240351Z 03004KT 19/17 A2995 RMK A01 T01870172  RH  091%=      5-min Rain = 0
KBI1 240352Z 03004KT 19/17 A2995 RMK A01 T01860171  RH  091%=      5-min Rain = 0
KBI1 240353Z 03005KT 19/17 A2995 RMK A01 T01860171  RH  091%=      5-min Rain = 0
KBI1 240354Z 03005KT 19/17 A2995 RMK A01 T01860171  RH  091%=      5-min Rain = 0
KBI1 240355Z 03005KT 19/17 A2995 RMK A01 T01860171  RH  091%=      5-min Rain = 0
KBI1 240356Z 02005KT 19/17 A2994 RMK A01 T01860171  RH  091%=      5-min Rain = 0
KBI1 240357Z 02005KT 19/17 A2994 RMK A01 T01870171  RH  091%=      5-min Rain = 0
KBI1 240358Z 02006KT 19/17 A2994 RMK A01 T01870171  RH  091%=      5-min Rain = 0
KBI1 240359Z 03005KT 19/17 A2995 RMK A01 T01860171  RH  091%=      5-min Rain = 0
KBI1 240400Z 02005KT 19/17 A2995 RMK A01 T01860171  RH  091%=      5-min Rain = 0
KBI1 240401Z 02007KT 19/17 A2995 RMK A01 T01860172  RH  091%=      5-min Rain = 0
KBI1 240402Z 01008G13KT 19/17 A2995 RMK A01 T01860172  RH  091%=      5-min Rain = 0
KBI1 240403Z 01017KT 18/15 A2995 RMK A01 T01810153  RH  084%=      5-min Rain = 0
KBI1 240404Z 01015KT 17/14 A2995 RMK A01 T01710137  RH  081%=      5-min Rain = 0
KBI1 240405Z 02014KT 16/14 A2995 RMK A01 T01640135  RH  083%=      5-min Rain = 0
KBI1 240406Z 02014KT 16/14 A2995 RMK A01 T01610135  RH  085%=      5-min Rain = 0
KBI1 240407Z 02013KT 16/14 A2995 RMK A01 T01580135  RH  086%=      5-min Rain = 0
KBI1 240408Z 02013G21KT 16/14 A2995 RMK A01 T01570135  RH  087%=      5-min Rain = 0
KBI1 240409Z 03009G15KT 16/14 A2995 RMK A01 T01560135  RH  087%=      5-min Rain = 0
KBI1 240410Z 03008KT 16/14 A2995 RMK A01 T01560136  RH  088%=      5-min Rain = 0
KBI1 240411Z 03013G19KT 16/14 A2995 RMK A01 T01550136  RH  088%=      5-min Rain = 0
KBI1 240412Z 02011KT 16/14 A2996 RMK A01 T01550136  RH  088%=      5-min Rain = 0
KBI1 240413Z 03012KT 16/14 A2996 RMK A01 T01550136  RH  088%=      5-min Rain = 0
KBI1 240414Z 03010KT 16/14 A2996 RMK A01 T01550136  RH  089%=      5-min Rain = 0
KBI1 240415Z 02010KT 16/14 A2996 RMK A01 T01550136  RH  089%=      5-min Rain = 0
KBI1 240416Z 03010KT 16/14 A2996 RMK A01 T01550136  RH  089%=      5-min Rain = 0
KBI1 240417Z 03011KT 15/14 A2996 RMK A01 T01540136  RH  089%=      5-min Rain = 0
KBI1 240418Z 03010KT 15/14 A2996 RMK A01 T01540137  RH  089%=      5-min Rain = 0
KBI1 240419Z 04009KT 15/14 A2996 RMK A01 T01540137  RH  090%=      5-min Rain = 0
KBI1 240420Z 04011KT 16/14 A2996 RMK A01 T01550138  RH  090%=      5-min Rain = 0
KBI1 240421Z 04010KT 16/14 A2996 RMK A01 T01550139  RH  090%=      5-min Rain = 0
KBI1 240422Z 03011KT 16/14 A2996 RMK A01 T01560140  RH  090%=      5-min Rain = 0
KBI1 240423Z 03013G18KT 16/14 A2995 RMK A01 T01560140  RH  090%=      5-min Rain = 0
KBI1 240424Z 02014KT 16/14 A2995 RMK A01 T01560139  RH  090%=      5-min Rain = 0
KBI1 240425Z 02013KT 16/14 A2995 RMK A01 T01550138  RH  090%=      5-min Rain = 0
KBI1 240426Z 03012KT 15/14 A2995 RMK A01 T01540138  RH  090%=      5-min Rain = 0
KBI1 240427Z 02010KT 15/14 A2995 RMK A01 T01540138  RH  090%=      5-min Rain = 0
KBI1 240428Z 03012KT 15/14 A2995 RMK A01 T01530138  RH  091%=      5-min Rain = 0
KBI1 240429Z 02013KT 15/14 A2995 RMK A01 T01530138  RH  091%=      5-min Rain = 0
KBI1 240430Z 03012KT 15/14 A2995 RMK A01 T01530138  RH  091%=      5-min Rain = 0
KBI1 240431Z 03013KT 15/14 A2995 RMK A01 T01530138  RH  091%=      5-min Rain = 0
KBI1 240432Z 03012KT 15/14 A2995 RMK A01 T01530138  RH  091%=      5-min Rain = 0
KBI1 240433Z 02011KT 15/14 A2995 RMK A01 T01530138  RH  091%=      5-min Rain = 0
KBI1 240434Z 03010KT 15/14 A2995 RMK A01 T01530138  RH  091%=      5-min Rain = 0
KBI1 240435Z 03012G17KT 15/14 A2995 RMK A01 T01530138  RH  091%=      5-min Rain = 0
KBI1 240436Z 05008KT 15/14 A2995 RMK A01 T01530139  RH  091%=      5-min Rain = 0
KBI1 240437Z 05009KT 15/14 A2995 RMK A01 T01530139  RH  091%=      5-min Rain = 0
KBI1 240438Z 04012KT 15/14 A2995 RMK A01 T01540138  RH  090%=      5-min Rain = 0
KBI1 240439Z 04008G13KT 15/14 A2995 RMK A01 T01540137  RH  090%=      5-min Rain = 0
KBI1 240440Z 04012KT 15/14 A2995 RMK A01 T01540138  RH  090%=      5-min Rain = 0
KBI1 240441Z 05013G18KT 15/14 A2995 RMK A01 T01540138  RH  090%=      5-min Rain = 0
KBI1 240442Z 05015KT 15/14 A2995 RMK A01 T01540138  RH  090%=      5-min Rain = 0
KBI1 240443Z 04012G18KT 15/14 A2995 RMK A01 T01540137  RH  090%=      5-min Rain = 0
KBI1 240444Z 05008KT 15/14 A2995 RMK A01 T01540138  RH  090%=      5-min Rain = 0
KBI1 240445Z 04009KT 15/14 A2995 RMK A01 T01540138  RH  090%=      5-min Rain = 0
KBI1 240446Z 06010KT 15/14 A2996 RMK A01 T01540138  RH  090%=      5-min Rain = 0
KBI1 240447Z 05008KT 15/14 A2996 RMK A01 T01540138  RH  090%=      5-min Rain = 0
KBI1 240448Z 05012KT 15/14 A2995 RMK A01 T01540137  RH  090%=      5-min Rain = 0
KBI1 240449Z 05013KT 15/14 A2995 RMK A01 T01540137  RH  090%=      5-min Rain = 0
KBI1 240450Z 03018G26KT 15/14 A2995 RMK A01 T01540137  RH  089%=      5-min Rain = 0
KBI1 240451Z 03018G23KT 15/14 A2995 RMK A01 T01540137  RH  089%=      5-min Rain = 0
KBI1 240452Z 03017KT 15/14 A2995 RMK A01 T01530136  RH  089%=      5-min Rain = 0
KBI1 240453Z 04013KT 15/14 A2995 RMK A01 T01530136  RH  090%=      5-min Rain = 0
KBI1 240454Z 05011KT 15/14 A2995 RMK A01 T01530137  RH  090%=      5-min Rain = 0
KBI1 240455Z 04013KT 15/14 A2995 RMK A01 T01530136  RH  090%=      5-min Rain = 0
KBI1 240456Z 05013G18KT 15/14 A2995 RMK A01 T01530136  RH  090%=      5-min Rain = 0
KBI1 240457Z 04017G24KT 15/14 A2995 RMK A01 T01530136  RH  090%=      5-min Rain = 0
KBI1 240458Z 04012KT 15/14 A2995 RMK A01 T01530136  RH  090%=      5-min Rain = 0
KBI1 240459Z 03018KT 15/14 A2995 RMK A01 T01530136  RH  090%=      5-min Rain = 0

Page generated in 0.0771 seconds.